GFSNGP_700_temp_000.txt.gz
Temp
1 2 1 -1 -0 -0 -1 -1 -1 0 0 -0 -1 -2 -1 -2 -4 -4 -3 -4 -4 -4 -4 -5 -5 -5 -6 -7 -7 -8 -8 -8 -9 -9 -10 -11 -12 -13 -13 -14 -14 -14 -14 -14
1 2 1 0 1 -0 0 -1 -1 -1 -1 -2 -2 -2 -2 -4 -4 -4 -4 -4 -4 -4 -6 -6 -6 -7 -7 -7 -7 -8 -8 -9 -10 -10 -12 -13 -13 -14 -14 -15 -15 -15 -15 -15
-0 1 0 1 2 0 -0 -1 -1 -1 -1 -1 -3 -3 -4 -3 -4 -4 -4 -4 -5 -5 -6 -6 -7 -7 -8 -8 -8 -8 -9 -10 -10 -11 -13 -13 -14 -15 -15 -15 -15 -15 -15 -15
-1 -1 -0 1 0 -0 -0 -0 -1 -2 -2 -2 -3 -4 -4 -4 -4 -4 -5 -5 -5 -6 -7 -7 -7 -8 -8 -8 -9 -10 -10 -11 -12 -13 -13 -14 -15 -15 -15 -15 -15 -16 -16 -16
-3 -3 -1 0 -0 -1 -2 -1 -2 -2 -2 -2 -3 -4 -4 -3 -3 -4 -5 -5 -6 -7 -8 -8 -8 -9 -9 -9 -10 -10 -11 -12 -13 -14 -14 -15 -15 -15 -15 -16 -16 -16 -16 -17
-4 -4 -2 -1 -1 -2 -1 -2 -2 -2 -3 -4 -4 -5 -5 -5 -5 -6 -7 -7 -8 -9 -9 -9 -9 -9 -9 -10 -10 -11 -12 -13 -14 -14 -15 -15 -15 -15 -16 -16 -16 -16 -17 -17
-4 -4 -3 -3 -2 -3 -3 -3 -3 -4 -4 -5 -6 -6 -6 -6 -7 -8 -8 -9 -9 -9 -9 -9 -10 -10 -10 -11 -11 -12 -12 -13 -14 -15 -15 -15 -15 -16 -16 -16 -16 -17 -17 -17
-3 -4 -4 -2 -3 -3 -4 -4 -4 -5 -5 -5 -6 -7 -7 -8 -8 -9 -9 -9 -9 -9 -9 -10 -10 -10 -10 -11 -12 -13 -14 -14 -15 -15 -15 -16 -16 -16 -16 -16 -16 -17 -18 -18
-3 -2 -3 -3 -3 -4 -4 -5 -5 -5 -5 -6 -6 -7 -8 -8 -9 -9 -10 -10 -10 -10 -10 -11 -11 -11 -11 -12 -13 -14 -14 -15 -15 -16 -16 -16 -16 -16 -16 -16 -17 -18 -18 -18
-4 -3 -4 -4 -4 -4 -4 -4 -5 -6 -6 -6 -7 -8 -9 -9 -10 -10 -10 -10 -10 -11 -11 -11 -12 -12 -13 -13 -14 -14 -14 -15 -16 -16 -16 -16 -16 -16 -17 -17 -17 -18 -18 -18
-4 -3 -4 -4 -4 -4 -4 -5 -6 -6 -7 -7 -8 -9 -9 -10 -10 -10 -10 -11 -11 -12 -12 -12 -13 -13 -14 -14 -14 -14 -15 -16 -16 -16 -16 -16 -16 -16 -17 -17 -17 -18 -18 -18
-3 -4 -4 -4 -5 -5 -5 -5 -6 -7 -8 -9 -9 -9 -10 -10 -10 -10 -11 -12 -12 -12 -12 -13 -13 -14 -14 -14 -14 -15 -16 -16 -16 -16 -16 -16 -16 -17 -17 -17 -17 -18 -18 -18
-4 -4 -5 -5 -6 -6 -6 -7 -8 -8 -9 -10 -10 -11 -11 -10 -10 -11 -12 -12 -12 -12 -13 -13 -13 -14 -14 -14 -15 -15 -16 -16 -15 -15 -16 -16 -17 -17 -17 -17 -17 -18 -18 -18
-5 -5 -5 -6 -6 -7 -7 -8 -8 -9 -10 -11 -11 -11 -11 -11 -11 -12 -12 -12 -13 -13 -13 -13 -14 -14 -15 -15 -15 -15 -15 -15 -15 -16 -16 -16 -17 -17 -17 -17 -17 -18 -18 -18
-6 -6 -6 -6 -7 -8 -8 -9 -9 -10 -11 -10 -10 -11 -11 -11 -12 -12 -12 -13 -13 -13 -14 -14 -14 -14 -15 -15 -15 -16 -15 -15 -15 -16 -16 -17 -17 -17 -17 -17 -17 -18 -18 -18
-6 -6 -7 -8 -8 -8 -9 -10 -10 -10 -10 -10 -11 -11 -12 -12 -12 -13 -13 -13 -13 -13 -14 -14 -14 -15 -15 -15 -15 -15 -15 -15 -16 -16 -16 -17 -17 -17 -17 -17 -17 -18 -18 -18
-7 -7 -8 -8 -9 -9 -10 -10 -11 -11 -11 -11 -11 -12 -12 -12 -12 -13 -13 -13 -13 -13 -14 -14 -14 -15 -15 -15 -15 -15 -15 -16 -16 -16 -16 -17 -17 -17 -17 -17 -17 -18 -18 -18
-8 -8 -8 -9 -9 -10 -11 -11 -11 -11 -12 -12 -12 -12 -12 -12 -13 -12 -13 -13 -14 -14 -14 -14 -15 -15 -15 -15 -15 -15 -16 -16 -16 -16 -17 -17 -17 -17 -17 -17 -17 -18 -18 -18
-8 -9 -10 -10 -11 -11 -11 -11 -11 -12 -12 -12 -12 -13 -13 -13 -13 -13 -13 -13 -14 -14 -14 -14 -15 -15 -15 -15 -15 -15 -16 -16 -16 -16 -17 -17 -17 -17 -17 -18 -17 -18 -18 -18
-10 -10 -11 -11 -11 -11 -11 -12 -12 -12 -12 -13 -13 -13 -13 -13 -13 -13 -13 -14 -14 -14 -14 -15 -15 -16 -16 -16 -15 -15 -16 -16 -16 -16 -16 -17 -17 -17 -18 -18 -18 -18 -18 -18
-11 -11 -11 -11 -11 -12 -12 -12 -12 -12 -13 -13 -13 -13 -13 -13 -13 -13 -14 -14 -15 -14 -15 -15 -15 -16 -16 -16 -16 -16 -16 -16 -16 -16 -16 -17 -17 -17 -18 -18 -18 -18 -18 -18
-11 -11 -11 -11 -12 -12 -12 -12 -13 -13 -13 -13 -14 -14 -13 -13 -13 -14 -14 -15 -15 -14 -15 -15 -16 -16 -16 -16 -16 -16 -16 -16 -16 -16 -17 -17 -17 -17 -18 -18 -18 -18 -18 -18
-11 -11 -12 -12 -12 -12 -12 -13 -13 -13 -13 -14 -14 -14 -14 -14 -14 -14 -14 -14 -14 -15 -15 -15 -16 -16 -16 -16 -16 -16 -16 -16 -16 -17 -17 -17 -17 -18 -18 -18 -18 -18 -18 -18
-12 -12 -12 -13 -13 -13 -12 -13 -13 -13 -13 -13 -13 -14 -14 -14 -14 -14 -14 -14 -15 -15 -15 -16 -16 -16 -16 -16 -16 -16 -16 -16 -17 -17 -17 -17 -17 -18 -18 -18 -18 -19 -19 -19
-12 -12 -12 -13 -13 -13 -13 -13 -13 -13 -13 -13 -13 -13 -14 -14 -14 -14 -14 -14 -15 -15 -15 -16 -16 -16 -16 -16 -16 -16 -16 -17 -17 -17 -17 -17 -18 -18 -18 -18 -18 -19 -19 -19
-13 -13 -13 -13 -14 -14 -14 -14 -13 -13 -13 -13 -13 -13 -14 -14 -14 -14 -14 -14 -15 -15 -15 -16 -16 -16 -16 -16 -16 -16 -16 -17 -17 -17 -17 -18 -18 -18 -18 -18 -19 -19 -19 -19
-13 -13 -14 -14 -14 -14 -14 -14 -14 -14 -14 -14 -14 -14 -14 -14 -14 -14 -14 -15 -15 -15 -16 -16 -16 -16 -16 -16 -16 -16 -16 -17 -17 -17 -18 -18 -18 -18 -18 -19 -19 -19 -19 -19

GFSNGP_700_temp_003.txt.gz
Temp
2 2 2 2 2 2 2 2 1 2 2 2 1 -0 -1 -1 -2 -3 -3 -4 -4 -4 -4 -5 -5 -5 -6 -7 -7 -7 -8 -8 -8 -9 -9 -10 -12 -12 -13 -13 -14 -15 -15 -17
2 1 1 1 1 2 2 2 2 2 1 0 -0 -1 -2 -2 -3 -3 -4 -4 -4 -5 -5 -5 -6 -7 -9 -9 -10 -9 -8 -10 -9 -10 -11 -12 -13 -14 -15 -15 -15 -15 -17 -17
1 1 0 1 2 2 2 1 0 1 1 -0 -1 -2 -2 -3 -4 -4 -4 -4 -5 -5 -6 -7 -8 -8 -9 -9 -10 -10 -12 -12 -13 -13 -13 -13 -14 -15 -16 -16 -17 -17 -17 -18
0 -0 0 1 1 1 0 0 0 1 -0 -2 -2 -3 -4 -4 -4 -4 -5 -5 -6 -7 -7 -8 -8 -8 -9 -10 -10 -11 -11 -12 -13 -13 -13 -15 -15 -16 -16 -17 -17 -17 -18 -18
-2 -1 -0 0 -1 -1 -1 -0 -1 -1 -2 -2 -3 -4 -4 -4 -5 -5 -5 -6 -7 -9 -8 -9 -9 -10 -10 -10 -11 -11 -11 -12 -12 -14 -14 -15 -15 -16 -17 -17 -17 -17 -17 -17
-3 -3 -1 -0 -1 -2 -1 -1 -2 -2 -2 -3 -3 -5 -5 -5 -5 -5 -7 -9 -9 -10 -10 -10 -11 -11 -11 -11 -11 -12 -12 -13 -14 -14 -14 -15 -16 -16 -17 -17 -17 -16 -17 -17
-3 -3 -2 -1 -2 -2 -2 -2 -2 -3 -3 -4 -5 -6 -6 -6 -7 -9 -9 -9 -10 -10 -11 -11 -10 -11 -12 -12 -12 -12 -13 -13 -14 -14 -15 -15 -16 -17 -17 -17 -17 -16 -17 -17
-3 -3 -3 -2 -3 -3 -3 -4 -4 -4 -5 -5 -6 -6 -8 -8 -9 -9 -9 -10 -10 -11 -11 -10 -12 -13 -13 -12 -12 -12 -13 -14 -14 -15 -15 -16 -17 -17 -17 -18 -16 -17 -17 -17
-2 -1 -1 -3 -3 -3 -4 -4 -5 -5 -5 -6 -7 -8 -9 -9 -10 -10 -10 -10 -11 -12 -12 -13 -13 -13 -13 -13 -13 -13 -13 -14 -15 -16 -16 -17 -17 -17 -18 -17 -16 -17 -17 -17
-3 -3 -3 -3 -3 -3 -4 -5 -5 -5 -6 -8 -9 -9 -10 -10 -10 -10 -11 -11 -12 -13 -13 -13 -13 -14 -14 -13 -13 -14 -14 -15 -16 -16 -15 -16 -17 -18 -17 -16 -17 -17 -17 -18
-3 -3 -3 -3 -4 -4 -5 -5 -5 -5 -7 -7 -8 -10 -10 -10 -11 -11 -12 -12 -13 -13 -13 -13 -14 -14 -15 -13 -14 -14 -14 -15 -15 -16 -16 -16 -16 -16 -16 -16 -17 -17 -17 -17
-3 -4 -4 -4 -4 -5 -5 -6 -6 -7 -8 -8 -10 -10 -10 -11 -11 -12 -12 -13 -13 -13 -13 -14 -14 -13 -13 -14 -14 -14 -15 -15 -16 -15 -15 -15 -15 -16 -16 -16 -17 -17 -17 -17
-3 -3 -4 -4 -5 -5 -7 -7 -7 -8 -8 -10 -10 -11 -11 -12 -12 -12 -13 -13 -13 -13 -13 -13 -13 -13 -13 -14 -14 -15 -16 -15 -15 -15 -15 -15 -16 -16 -16 -17 -17 -17 -17 -17
-3 -4 -5 -5 -6 -6 -6 -7 -8 -10 -10 -11 -11 -11 -11 -12 -12 -12 -12 -12 -12 -13 -13 -13 -13 -13 -13 -14 -15 -15 -15 -15 -15 -15 -15 -16 -16 -16 -17 -17 -17 -17 -17 -17
-5 -5 -6 -6 -6 -7 -8 -8 -9 -10 -11 -10 -11 -11 -11 -11 -12 -12 -12 -12 -13 -13 -13 -13 -14 -14 -14 -14 -15 -15 -15 -15 -15 -16 -16 -16 -16 -16 -17 -17 -17 -17 -17 -17
-5 -6 -6 -7 -7 -8 -8 -9 -9 -10 -10 -10 -11 -11 -12 -12 -12 -12 -13 -13 -13 -13 -13 -13 -14 -14 -14 -15 -15 -16 -15 -15 -16 -16 -16 -16 -16 -17 -17 -17 -17 -17 -17 -17
-6 -6 -7 -7 -8 -8 -9 -10 -10 -10 -11 -11 -11 -11 -12 -12 -12 -13 -13 -13 -13 -13 -13 -14 -14 -14 -14 -15 -15 -16 -16 -16 -16 -16 -16 -16 -17 -17 -17 -17 -17 -17 -17 -17
-6 -7 -8 -8 -9 -9 -10 -10 -11 -11 -11 -12 -12 -12 -12 -13 -13 -13 -13 -13 -13 -13 -14 -14 -14 -14 -15 -15 -16 -16 -16 -16 -16 -16 -16 -16 -17 -17 -17 -17 -17 -17 -17 -17
-7 -8 -9 -9 -10 -10 -11 -11 -11 -11 -12 -12 -12 -12 -13 -13 -13 -13 -13 -13 -13 -14 -14 -14 -14 -15 -15 -15 -16 -15 -15 -16 -16 -16 -16 -17 -17 -17 -17 -17 -18 -18 -18 -18
-9 -9 -10 -10 -11 -11 -11 -11 -12 -12 -12 -12 -13 -13 -13 -13 -13 -13 -13 -13 -14 -14 -15 -15 -15 -15 -15 -15 -16 -16 -16 -16 -16 -16 -16 -17 -17 -17 -17 -18 -18 -18 -18 -18
-10 -10 -11 -11 -10 -11 -11 -12 -12 -12 -12 -13 -13 -13 -13 -13 -13 -13 -13 -14 -14 -14 -14 -15 -15 -15 -15 -16 -16 -16 -16 -16 -16 -16 -16 -17 -17 -17 -17 -18 -18 -18 -18 -18
-11 -11 -11 -11 -11 -11 -11 -12 -12 -13 -13 -13 -13 -13 -13 -13 -13 -13 -14 -14 -14 -14 -14 -15 -15 -16 -16 -16 -16 -16 -16 -16 -16 -16 -17 -17 -17 -17 -17 -18 -18 -18 -18 -18
-10 -11 -11 -11 -11 -11 -12 -12 -13 -13 -13 -13 -13 -13 -13 -13 -13 -13 -13 -14 -14 -14 -14 -15 -15 -16 -16 -16 -16 -16 -16 -16 -16 -17 -17 -17 -17 -17 -18 -18 -18 -18 -18 -18
-11 -11 -11 -12 -12 -12 -12 -13 -13 -14 -14 -13 -13 -13 -13 -13 -13 -14 -14 -14 -14 -14 -15 -15 -15 -16 -16 -16 -16 -16 -16 -16 -16 -17 -17 -17 -17 -18 -18 -18 -18 -18 -18 -19
-11 -12 -12 -12 -12 -13 -13 -14 -14 -14 -14 -14 -14 -14 -14 -14 -14 -14 -14 -14 -14 -14 -15 -15 -15 -16 -16 -16 -16 -16 -16 -16 -16 -17 -17 -17 -18 -18 -18 -18 -18 -19 -19 -19
-12 -12 -12 -13 -13 -14 -14 -14 -14 -14 -14 -14 -14 -14 -14 -14 -14 -14 -14 -14 -15 -15 -15 -15 -16 -16 -16 -16 -16 -16 -16 -16 -16 -17 -17 -17 -18 -18 -18 -18 -18 -19 -19 -19
-13 -13 -13 -14 -14 -14 -14 -14 -14 -14 -14 -14 -14 -14 -14 -14 -14 -14 -14 -15 -15 -15 -15 -15 -15 -16 -16 -16 -16 -16 -16 -17 -17 -17 -17 -17 -18 -18 -18 -19 -19 -19 -19 -19

GFSNGP_700_temp_006.txt.gz
Temp
3 3 3 3 3 3 3 3 3 3 3 3 1 0 -0 -1 -0 -1 -2 -2 -3 -4 -4 -4 -4 -5 -7 -8 -9 -9 -8 -8 -9 -10 -10 -10 -11 -12 -13 -14 -15 -15 -16 -16
3 3 2 2 2 2 3 3 3 2 2 2 0 -0 -0 0 -1 -1 -2 -3 -4 -4 -4 -6 -7 -8 -8 -9 -9 -9 -9 -9 -10 -10 -10 -12 -12 -13 -13 -15 -15 -16 -16 -17
2 2 2 2 2 3 2 2 2 2 1 -1 -1 -1 -1 -1 -2 -3 -4 -4 -4 -5 -8 -8 -9 -8 -9 -10 -9 -10 -10 -10 -10 -10 -11 -11 -12 -13 -14 -15 -15 -16 -17 -17
1 1 1 2 2 2 1 1 1 1 -0 -2 -1 -1 -2 -3 -4 -4 -4 -4 -5 -8 -9 -9 -9 -10 -10 -10 -10 -11 -11 -11 -11 -11 -11 -12 -12 -14 -14 -15 -16 -16 -17 -17
-0 -1 1 1 0 1 -0 0 -0 -0 -1 -0 -1 -2 -3 -4 -4 -5 -5 -7 -8 -9 -9 -9 -10 -10 -10 -11 -12 -12 -12 -12 -11 -11 -13 -13 -12 -14 -15 -15 -16 -17 -17 -17
-1 -2 -1 1 0 -1 -1 -1 -2 -1 -1 -2 -2 -4 -5 -5 -5 -5 -6 -8 -9 -9 -10 -10 -10 -11 -11 -12 -12 -12 -12 -12 -12 -12 -13 -13 -13 -14 -15 -16 -17 -17 -17 -17
-3 -3 -2 -0 -1 -0 -2 -2 -2 -1 -2 -3 -3 -4 -5 -6 -7 -8 -9 -9 -9 -10 -10 -11 -11 -12 -12 -13 -13 -13 -13 -13 -13 -13 -14 -14 -15 -15 -16 -16 -17 -16 -17 -17
-3 -3 -2 -1 -2 -2 -2 -2 -3 -3 -4 -3 -4 -5 -6 -8 -8 -9 -9 -10 -10 -10 -11 -11 -12 -12 -13 -13 -13 -13 -13 -13 -14 -14 -14 -14 -15 -15 -16 -17 -15 -17 -17 -17
-1 0 -1 -2 -3 -2 -3 -3 -3 -3 -4 -4 -5 -6 -7 -8 -9 -9 -10 -10 -10 -11 -11 -12 -13 -13 -13 -13 -13 -13 -13 -14 -14 -14 -15 -15 -16 -16 -15 -15 -16 -17 -17 -16
-1 -1 -1 -2 -3 -3 -3 -3 -4 -4 -5 -6 -7 -8 -8 -9 -9 -10 -10 -10 -11 -11 -12 -13 -13 -13 -13 -13 -13 -13 -13 -14 -14 -14 -15 -16 -15 -16 -15 -16 -17 -17 -17 -17
-2 -2 -2 -2 -2 -2 -3 -4 -4 -5 -6 -7 -7 -9 -9 -9 -10 -10 -11 -11 -11 -12 -13 -13 -13 -13 -13 -13 -13 -13 -13 -14 -14 -15 -15 -15 -15 -15 -15 -16 -16 -16 -17 -17
-2 -2 -3 -3 -3 -4 -4 -4 -5 -6 -7 -7 -9 -9 -9 -10 -10 -10 -11 -11 -12 -12 -12 -12 -12 -13 -13 -13 -13 -14 -14 -14 -15 -15 -15 -15 -15 -15 -16 -16 -16 -17 -17 -17
-2 -3 -2 -3 -4 -4 -5 -6 -6 -6 -7 -9 -9 -10 -9 -10 -10 -11 -11 -12 -12 -12 -12 -13 -13 -13 -13 -13 -13 -14 -14 -15 -15 -15 -15 -15 -15 -15 -16 -16 -16 -17 -17 -17
-3 -3 -4 -4 -4 -5 -5 -6 -6 -7 -8 -9 -9 -9 -9 -10 -10 -11 -11 -12 -12 -12 -13 -13 -13 -13 -14 -14 -14 -14 -15 -15 -15 -15 -15 -15 -16 -16 -16 -16 -17 -17 -17 -17
-4 -4 -5 -5 -5 -6 -6 -7 -8 -9 -9 -9 -9 -10 -10 -11 -11 -11 -12 -12 -13 -13 -13 -13 -13 -13 -14 -14 -14 -15 -15 -15 -15 -15 -15 -16 -16 -16 -16 -16 -17 -17 -17 -17
-4 -5 -6 -6 -6 -7 -7 -8 -8 -9 -9 -9 -10 -10 -11 -11 -11 -12 -12 -13 -13 -13 -13 -13 -13 -14 -14 -14 -15 -15 -15 -15 -15 -15 -16 -16 -16 -16 -16 -17 -17 -17 -17 -17
-5 -5 -6 -7 -7 -7 -8 -8 -9 -9 -9 -10 -10 -10 -11 -12 -12 -12 -12 -13 -13 -13 -13 -13 -14 -14 -14 -15 -15 -15 -15 -16 -15 -16 -16 -16 -16 -16 -16 -17 -17 -17 -17 -17
-6 -6 -7 -7 -7 -8 -8 -9 -9 -9 -10 -10 -10 -11 -12 -12 -12 -12 -12 -13 -13 -13 -13 -14 -14 -15 -15 -15 -15 -15 -16 -16 -16 -15 -16 -16 -16 -16 -17 -17 -17 -17 -17 -18
-6 -7 -7 -8 -8 -8 -9 -9 -10 -10 -10 -11 -11 -12 -12 -12 -13 -13 -13 -13 -13 -13 -13 -14 -14 -15 -15 -15 -15 -15 -16 -16 -16 -16 -16 -16 -16 -16 -17 -17 -17 -17 -18 -18
-7 -7 -8 -8 -9 -9 -9 -10 -10 -11 -11 -11 -12 -12 -13 -13 -13 -13 -13 -13 -13 -13 -13 -14 -14 -14 -15 -15 -16 -16 -16 -16 -16 -16 -16 -16 -16 -17 -17 -17 -17 -17 -18 -18
-8 -9 -9 -9 -9 -10 -10 -10 -11 -11 -12 -12 -13 -13 -13 -13 -13 -13 -13 -13 -13 -13 -14 -14 -14 -14 -15 -15 -15 -16 -16 -16 -16 -16 -16 -16 -17 -17 -17 -17 -17 -17 -18 -18
-9 -9 -9 -10 -10 -10 -11 -11 -11 -12 -12 -13 -13 -14 -14 -13 -13 -13 -13 -13 -13 -14 -14 -14 -14 -15 -15 -15 -16 -16 -16 -16 -16 -16 -16 -16 -17 -17 -17 -17 -17 -18 -18 -18
-10 -10 -10 -10 -10 -10 -11 -12 -12 -13 -13 -14 -14 -14 -14 -14 -14 -14 -13 -14 -14 -14 -14 -14 -14 -15 -15 -15 -16 -16 -16 -16 -16 -16 -16 -17 -17 -17 -17 -17 -18 -18 -18 -18
-10 -10 -11 -11 -11 -11 -11 -12 -13 -13 -13 -14 -14 -14 -14 -14 -14 -14 -14 -14 -14 -14 -14 -14 -15 -15 -15 -15 -16 -16 -16 -16 -16 -16 -16 -17 -17 -17 -17 -18 -18 -18 -18 -18
-11 -11 -11 -11 -12 -12 -12 -13 -13 -14 -14 -14 -14 -14 -14 -14 -14 -14 -14 -14 -14 -14 -14 -15 -15 -15 -15 -16 -16 -16 -16 -16 -16 -16 -16 -17 -17 -17 -17 -18 -18 -18 -18 -18
-11 -11 -12 -12 -13 -13 -13 -14 -14 -14 -14 -14 -14 -15 -15 -14 -14 -14 -14 -14 -14 -14 -14 -15 -15 -15 -16 -16 -16 -16 -16 -16 -16 -16 -17 -17 -17 -17 -18 -18 -18 -18 -19 -19
-12 -12 -13 -13 -13 -14 -14 -14 -14 -14 -15 -15 -14 -15 -15 -14 -14 -14 -14 -14 -14 -14 -14 -15 -15 -15 -16 -16 -16 -16 -16 -16 -17 -16 -16 -17 -17 -17 -18 -18 -18 -18 -19 -19

GFSNGP_700_temp_009.txt.gz
Temp
4 4 3 3 3 3 3 3 3 3 2 2 1 0 -1 -1 -1 -1 -2 -2 -2 -3 -3 -3 -4 -5 -7 -8 -8 -8 -9 -10 -10 -10 -11 -10 -11 -11 -11 -13 -13 -13 -14 -14
3 3 3 3 3 3 3 2 3 3 2 0 1 -0 -0 -1 -1 -1 -1 -1 -3 -4 -4 -4 -6 -8 -9 -8 -9 -9 -10 -11 -11 -11 -11 -11 -12 -11 -13 -13 -13 -15 -15 -14
3 3 3 2 2 2 2 2 2 2 1 0 0 -0 -1 -1 -1 -1 -1 -2 -4 -4 -5 -7 -8 -9 -9 -9 -10 -10 -11 -11 -12 -12 -12 -12 -12 -13 -14 -13 -14 -14 -14 -15
3 2 -3 2 2 2 1 1 1 1 0 0 -0 -0 -1 -1 -2 -2 -3 -4 -5 -6 -8 -9 -9 -9 -9 -10 -10 -11 -11 -11 -12 -13 -13 -13 -13 -13 -14 -14 -14 -14 -15 -15
1 1 2 2 2 2 1 1 1 1 0 -0 -1 -2 -2 -2 -3 -4 -5 -5 -6 -8 -9 -9 -9 -9 -10 -11 -11 -12 -12 -12 -13 -13 -13 -13 -14 -13 -15 -15 -14 -15 -15 -16
0 -0 -4 1 0 0 -0 -1 -0 -0 -1 -1 -1 -2 -2 -3 -3 -4 -4 -6 -7 -9 -9 -9 -10 -10 -11 -11 -12 -12 -13 -13 -14 -13 -13 -14 -14 -14 -15 -15 -15 -15 -16 -17
-0 -1 1 1 0 1 -1 -0 -1 -1 -1 -2 -2 -3 -3 -4 -4 -5 -7 -8 -9 -9 -9 -10 -10 -11 -11 -12 -13 -13 -13 -13 -13 -13 -14 -14 -14 -15 -15 -15 -15 -15 -16 -16
-2 -3 -1 1 -0 -1 -1 -2 -2 -2 -3 -3 -4 -4 -5 -5 -5 -7 -8 -9 -9 -10 -10 -10 -11 -11 -12 -13 -13 -13 -13 -13 -13 -13 -14 -14 -15 -15 -16 -15 -15 -16 -16 -17
1 1 1 -0 -1 -1 -1 -2 -2 -2 -3 -4 -4 -5 -6 -7 -7 -8 -9 -9 -9 -10 -10 -11 -11 -12 -13 -13 -13 -13 -14 -13 -13 -13 -14 -15 -15 -16 -15 -15 -15 -16 -16 -17
-1 -0 -1 -1 -2 -2 -2 -2 -2 -3 -4 -4 -5 -6 -7 -8 -8 -8 -9 -9 -10 -10 -10 -11 -11 -12 -13 -13 -13 -13 -14 -13 -13 -14 -14 -15 -16 -15 -15 -15 -16 -16 -17 -17
0 -1 -1 -2 -2 -2 -2 -3 -4 -4 -5 -5 -7 -8 -8 -8 -8 -9 -9 -9 -10 -10 -11 -11 -12 -12 -13 -13 -13 -13 -13 -13 -14 -14 -15 -15 -15 -15 -15 -15 -16 -16 -17 -17
-1 -1 -1 -2 -2 -3 -3 -3 -4 -5 -5 -6 -7 -7 -7 -8 -9 -9 -9 -9 -10 -10 -11 -12 -12 -13 -13 -13 -13 -13 -14 -14 -14 -15 -15 -15 -15 -15 -16 -16 -16 -17 -17 -17
-1 -2 -2 -2 -3 -3 -4 -4 -4 -6 -6 -6 -7 -8 -9 -9 -9 -9 -9 -10 -11 -11 -12 -12 -13 -13 -13 -13 -13 -14 -14 -14 -15 -15 -15 -15 -15 -16 -16 -16 -16 -16 -17 -17
-2 -2 -2 -3 -4 -4 -4 -5 -6 -6 -6 -7 -8 -9 -9 -9 -9 -9 -10 -11 -11 -11 -12 -13 -13 -13 -13 -13 -14 -14 -14 -14 -15 -15 -15 -15 -16 -16 -16 -16 -16 -16 -17 -17
-3 -3 -3 -4 -4 -5 -6 -6 -6 -7 -7 -8 -9 -9 -9 -9 -9 -10 -11 -11 -12 -12 -13 -13 -13 -13 -13 -14 -14 -14 -14 -15 -15 -15 -15 -15 -16 -16 -16 -16 -16 -17 -17 -17
-3 -4 -4 -4 -5 -6 -6 -7 -7 -8 -8 -9 -9 -9 -9 -10 -10 -11 -12 -12 -12 -12 -13 -13 -13 -13 -14 -14 -14 -14 -15 -15 -15 -15 -15 -16 -16 -16 -16 -16 -16 -17 -17 -17
-4 -4 -4 -5 -7 -7 -7 -8 -8 -8 -9 -9 -9 -9 -10 -10 -11 -11 -12 -12 -12 -12 -13 -13 -13 -13 -14 -14 -14 -15 -15 -15 -15 -15 -16 -16 -16 -16 -16 -16 -16 -17 -17 -17
-4 -4 -5 -7 -7 -8 -8 -8 -8 -9 -9 -9 -9 -10 -11 -11 -12 -12 -12 -12 -13 -13 -13 -13 -13 -14 -14 -14 -15 -15 -15 -15 -15 -16 -16 -16 -16 -16 -16 -16 -16 -17 -17 -17
-5 -6 -7 -8 -8 -8 -8 -8 -9 -9 -9 -10 -10 -11 -11 -12 -12 -13 -13 -13 -13 -13 -13 -13 -13 -14 -14 -14 -15 -15 -15 -16 -16 -16 -16 -16 -16 -16 -16 -16 -17 -17 -17 -17
-7 -8 -8 -8 -8 -8 -9 -9 -9 -10 -10 -10 -11 -12 -12 -13 -13 -13 -13 -13 -14 -13 -13 -13 -14 -14 -14 -15 -15 -15 -15 -16 -16 -16 -16 -16 -16 -16 -16 -17 -17 -17 -17 -17
-9 -8 -9 -8 -9 -9 -9 -10 -10 -10 -11 -11 -12 -13 -13 -14 -14 -14 -13 -13 -14 -14 -14 -14 -14 -14 -14 -15 -15 -15 -16 -16 -16 -16 -16 -16 -16 -16 -16 -17 -17 -17 -17 -18
-9 -9 -9 -9 -9 -10 -10 -10 -11 -11 -11 -12 -13 -14 -14 -14 -14 -13 -14 -14 -14 -14 -14 -14 -14 -14 -15 -15 -15 -15 -16 -16 -16 -16 -16 -16 -16 -16 -17 -17 -17 -17 -18 -18
-9 -10 -10 -10 -10 -10 -10 -11 -11 -11 -12 -13 -13 -14 -14 -14 -14 -14 -14 -14 -14 -14 -14 -14 -14 -15 -15 -15 -15 -16 -16 -16 -16 -16 -16 -16 -16 -17 -17 -17 -17 -17 -18 -18
-10 -10 -10 -10 -10 -10 -11 -11 -12 -12 -13 -13 -14 -14 -14 -14 -14 -14 -14 -14 -14 -14 -14 -14 -15 -15 -15 -15 -16 -16 -16 -16 -16 -16 -16 -16 -16 -17 -17 -17 -17 -17 -18 -18
-10 -10 -11 -11 -11 -11 -12 -12 -12 -13 -14 -14 -14 -15 -15 -15 -15 -14 -14 -14 -14 -14 -14 -14 -15 -15 -15 -15 -15 -16 -16 -16 -16 -16 -17 -17 -17 -17 -17 -17 -17 -18 -18 -18
-11 -11 -11 -12 -12 -12 -13 -14 -14 -14 -14 -14 -14 -15 -15 -15 -15 -15 -14 -14 -14 -14 -14 -14 -14 -15 -15 -15 -16 -16 -16 -16 -16 -16 -16 -16 -17 -17 -17 -17 -17 -18 -18 -18
-12 -12 -12 -13 -13 -14 -14 -14 -14 -15 -15 -15 -15 -15 -15 -15 -15 -15 -15 -15 -15 -15 -15 -15 -15 -15 -15 -15 -16 -16 -16 -16 -16 -16 -16 -16 -17 -17 -17 -17 -17 -18 -18 -18

GFSNGP_700_temp_015.txt.gz
Temp
5 5 5 4 3 3 3 3 2 3 2 2 2 2 2 1 1 1 -0 -1 -2 -2 -2 -3 -3 -3 -3 -4 -5 -6 -7 -8 -9 -10 -10 -10 -11 -11 -12 -12 -13 -14 -14 -14
4 4 4 4 4 3 3 3 3 2 3 3 2 2 1 1 -0 -1 -1 -2 -2 -2 -3 -2 -3 -4 -4 -5 -7 -8 -9 -9 -10 -10 -11 -11 -11 -12 -12 -13 -13 -13 -14 -15
4 4 3 3 5 4 4 4 3 3 3 2 2 1 1 -0 -1 -1 -2 -2 -2 -2 -2 -3 -4 -5 -6 -7 -8 -9 -9 -10 -10 -11 -11 -12 -12 -12 -12 -13 -13 -14 -14 -15
4 3 -3 5 5 4 4 3 3 2 2 1 1 -0 -1 -1 -2 -2 -2 -3 -3 -3 -4 -4 -5 -6 -7 -8 -9 -9 -10 -10 -11 -11 -12 -12 -12 -13 -13 -13 -14 -14 -15 -16
3 2 3 4 5 4 4 3 3 2 2 1 0 -1 -1 -2 -2 -2 -3 -3 -3 -4 -5 -5 -6 -7 -8 -9 -9 -9 -10 -11 -12 -12 -12 -12 -13 -13 -13 -14 -15 -15 -16 -16
2 1 -4 4 4 4 3 2 3 2 1 0 -1 -1 -1 -2 -2 -3 -3 -3 -5 -6 -6 -6 -8 -8 -9 -9 -9 -10 -11 -11 -12 -13 -13 -13 -13 -13 -14 -14 -15 -16 -16 -16
1 1 2 4 3 3 1 3 2 1 0 -1 -1 -2 -2 -3 -3 -3 -4 -5 -6 -6 -7 -7 -8 -8 -9 -9 -10 -11 -11 -12 -13 -13 -13 -14 -14 -14 -14 -15 -15 -16 -16 -16
1 0 1 3 3 2 3 2 1 0 -1 -1 -2 -3 -3 -3 -4 -4 -5 -6 -6 -7 -7 -8 -8 -9 -9 -10 -10 -11 -12 -12 -13 -13 -13 -14 -14 -14 -15 -15 -16 -16 -16 -16
2 3 3 2 2 1 0 0 -0 -1 -2 -2 -3 -3 -4 -4 -5 -6 -7 -7 -7 -7 -8 -9 -9 -10 -10 -10 -11 -12 -12 -13 -13 -13 -14 -14 -15 -15 -15 -16 -16 -16 -16 -16
2 2 2 1 1 0 -0 -1 -1 -2 -2 -3 -3 -4 -4 -5 -6 -7 -7 -7 -8 -8 -9 -9 -9 -10 -10 -11 -11 -12 -12 -13 -13 -14 -14 -15 -15 -15 -16 -16 -16 -16 -16 -16
1 1 1 0 0 -0 -1 -1 -2 -2 -3 -3 -4 -3 -5 -6 -7 -7 -8 -8 -8 -9 -9 -9 -10 -10 -11 -12 -12 -12 -13 -13 -13 -14 -15 -15 -15 -16 -16 -16 -16 -16 -16 -16
1 0 -0 -0 -1 -1 -2 -2 -2 -2 -3 -4 -4 -5 -6 -7 -7 -8 -8 -8 -9 -9 -9 -10 -10 -11 -12 -12 -12 -13 -13 -13 -14 -14 -15 -15 -16 -16 -16 -16 -16 -16 -16 -17
0 -0 -0 -1 -1 -1 -2 -2 -3 -3 -4 -4 -4 -7 -9 -8 -8 -8 -8 -9 -9 -9 -9 -10 -11 -12 -12 -13 -13 -13 -13 -14 -14 -15 -15 -16 -16 -16 -16 -16 -16 -16 -17 -17
-0 -1 -1 -1 -1 -2 -3 -3 -4 -4 -4 -4 -6 -9 -9 -8 -8 -8 -9 -9 -9 -9 -10 -11 -11 -12 -13 -13 -13 -13 -13 -14 -14 -15 -15 -15 -16 -16 -16 -16 -16 -17 -17 -17
-0 -1 -2 -2 -2 -3 -4 -4 -4 -4 -5 -6 -8 -10 -10 -9 -9 -9 -9 -9 -10 -10 -11 -12 -12 -13 -13 -13 -13 -13 -14 -14 -14 -15 -15 -15 -16 -16 -16 -16 -16 -16 -17 -17
-2 -2 -2 -3 -3 -4 -4 -4 -5 -5 -7 -9 -10 -10 -9 -9 -9 -9 -10 -10 -10 -11 -12 -12 -13 -13 -13 -14 -14 -14 -14 -14 -15 -15 -15 -15 -16 -16 -16 -16 -16 -16 -17 -17
-2 -2 -3 -3 -4 -5 -4 -4 -6 -9 -10 -11 -11 -10 -9 -9 -9 -10 -10 -10 -11 -12 -13 -13 -13 -13 -13 -14 -14 -14 -14 -15 -15 -15 -15 -16 -16 -16 -16 -16 -16 -16 -17 -17
-3 -3 -5 -5 -4 -5 -7 -8 -11 -10 -11 -11 -10 -9 -9 -10 -10 -10 -10 -11 -12 -13 -13 -13 -13 -14 -14 -14 -14 -14 -14 -15 -15 -15 -16 -16 -16 -16 -16 -16 -16 -17 -17 -17
-4 -5 -5 -4 -6 -7 -8 -10 -10 -11 -11 -10 -10 -10 -10 -10 -10 -10 -11 -12 -13 -13 -13 -13 -14 -14 -14 -14 -14 -14 -15 -15 -15 -15 -16 -16 -16 -16 -16 -16 -16 -17 -17 -17
-6 -6 -7 -7 -8 -9 -10 -11 -11 -11 -10 -10 -10 -10 -10 -11 -11 -11 -12 -13 -14 -14 -14 -14 -14 -14 -14 -14 -14 -15 -15 -15 -15 -15 -16 -16 -16 -16 -16 -16 -16 -17 -17 -17
-7 -7 -8 -9 -10 -11 -11 -11 -10 -10 -10 -10 -10 -10 -11 -11 -12 -13 -13 -13 -14 -14 -14 -14 -14 -14 -14 -14 -14 -14 -15 -15 -15 -16 -16 -16 -16 -16 -16 -16 -16 -16 -17 -17
-9 -10 -11 -11 -11 -11 -10 -10 -10 -10 -10 -11 -11 -11 -12 -12 -13 -13 -14 -14 -14 -14 -14 -14 -14 -14 -14 -14 -14 -14 -15 -15 -15 -15 -16 -16 -16 -16 -16 -17 -17 -17 -17 -17
-10 -10 -10 -10 -11 -10 -11 -11 -11 -11 -11 -11 -12 -12 -13 -13 -14 -14 -14 -14 -14 -14 -14 -15 -15 -15 -15 -15 -15 -15 -15 -15 -15 -16 -16 -16 -16 -17 -17 -17 -17 -17 -17 -17
-11 -11 -11 -11 -11 -11 -11 -11 -11 -12 -12 -12 -13 -14 -14 -14 -14 -14 -14 -14 -14 -14 -15 -15 -15 -15 -15 -15 -15 -15 -15 -15 -15 -15 -16 -16 -16 -17 -17 -17 -17 -17 -17 -17
-11 -11 -11 -11 -11 -12 -12 -12 -12 -12 -13 -13 -14 -14 -14 -15 -15 -15 -15 -15 -15 -15 -15 -15 -15 -15 -16 -15 -15 -15 -15 -15 -16 -16 -16 -16 -17 -17 -17 -17 -17 -17 -17 -17
-12 -12 -12 -12 -12 -13 -13 -13 -13 -13 -14 -14 -14 -14 -15 -16 -16 -16 -16 -16 -16 -15 -15 -16 -16 -16 -16 -16 -16 -16 -16 -16 -16 -16 -16 -16 -17 -17 -17 -17 -17 -17 -17 -17
-13 -13 -13 -13 -13 -13 -14 -14 -14 -13 -14 -14 -14 -15 -15 -16 -16 -17 -17 -17 -16 -16 -16 -16 -16 -16 -16 -16 -16 -16 -16 -16 -16 -16 -17 -17 -17 -17 -17 -17 -18 -17 -17 -17

GFSNGP_700_temp_018.txt.gz
Temp
5 5 5 5 5 4 4 3 3 4 4 3 2 2 2 2 1 1 0 -1 -1 -2 -2 -2 -3 -4 -4 -4 -4 -5 -6 -7 -7 -8 -9 -9 -10 -10 -11 -12 -12 -13 -13 -13
4 5 4 4 4 4 4 4 4 3 5 4 3 2 2 2 1 0 -0 -1 -2 -2 -3 -3 -4 -5 -5 -5 -5 -6 -7 -7 -8 -9 -9 -10 -11 -12 -12 -12 -13 -13 -13 -14
4 4 4 4 6 6 6 5 5 4 4 3 3 2 1 1 0 -0 -1 -2 -2 -3 -3 -4 -5 -5 -5 -5 -6 -7 -8 -8 -9 -9 -10 -11 -12 -12 -13 -13 -13 -13 -14 -15
4 3 -3 6 6 6 5 5 5 4 4 3 2 1 1 0 -0 -1 -2 -2 -3 -3 -4 -4 -5 -5 -5 -6 -7 -8 -8 -9 -9 -10 -11 -11 -12 -13 -13 -14 -14 -14 -14 -15
3 2 4 5 5 5 5 5 5 4 3 2 2 1 1 0 -1 -2 -2 -3 -3 -4 -4 -5 -6 -6 -6 -7 -8 -8 -9 -9 -10 -11 -11 -12 -12 -13 -14 -14 -14 -15 -15 -16
2 1 -5 4 5 5 4 3 4 3 2 2 1 1 0 -2 -2 -3 -3 -3 -4 -5 -5 -6 -6 -7 -7 -8 -8 -9 -9 -10 -11 -11 -11 -12 -13 -13 -14 -14 -15 -15 -15 -16
2 1 2 3 3 3 2 4 3 2 2 1 0 -0 -1 -2 -3 -3 -4 -4 -5 -6 -6 -6 -7 -8 -8 -8 -9 -9 -10 -11 -11 -12 -12 -13 -13 -14 -14 -15 -15 -15 -16 -16
2 0 1 3 3 2 3 2 1 1 0 -0 -1 -1 -2 -2 -3 -3 -4 -5 -6 -7 -7 -7 -8 -8 -9 -9 -9 -10 -11 -11 -12 -12 -12 -13 -14 -14 -15 -15 -15 -16 -16 -16
2 3 3 2 2 1 1 1 0 -0 -0 -1 -1 -2 -3 -3 -4 -4 -5 -6 -7 -7 -7 -8 -9 -9 -9 -9 -10 -11 -11 -12 -12 -12 -13 -13 -14 -15 -15 -15 -16 -16 -16 -16
2 2 2 1 1 1 -0 -0 -1 -1 -1 -2 -2 -3 -3 -4 -4 -4 -6 -8 -8 -8 -8 -9 -9 -9 -9 -10 -10 -11 -12 -12 -13 -13 -13 -14 -14 -15 -15 -16 -16 -16 -16 -16
1 1 1 0 0 -0 -0 -1 -1 -1 -2 -2 -3 -3 -4 -3 -4 -6 -8 -9 -8 -9 -9 -9 -9 -10 -10 -10 -11 -12 -13 -13 -13 -13 -14 -14 -14 -15 -15 -16 -16 -16 -16 -17
1 0 -0 -0 -0 -0 -1 -1 -2 -2 -2 -3 -3 -4 -4 -4 -7 -9 -10 -9 -10 -9 -9 -9 -9 -10 -11 -11 -12 -12 -13 -13 -13 -13 -14 -14 -15 -15 -15 -16 -16 -16 -16 -17
0 -0 -0 -0 -1 -1 -2 -2 -2 -2 -3 -4 -4 -4 -4 -6 -9 -10 -10 -11 -9 -9 -9 -9 -10 -11 -11 -12 -13 -13 -13 -13 -14 -14 -14 -15 -15 -15 -16 -16 -16 -16 -16 -16
-0 -1 -1 -1 -1 -2 -2 -2 -3 -3 -4 -3 -4 -4 -6 -9 -10 -11 -11 -10 -9 -9 -10 -10 -11 -11 -12 -13 -13 -13 -13 -14 -14 -14 -15 -15 -15 -16 -16 -16 -16 -16 -16 -16
-1 -1 -1 -2 -2 -2 -3 -3 -4 -4 -4 -4 -5 -6 -9 -10 -11 -11 -10 -9 -10 -10 -10 -11 -12 -12 -13 -13 -13 -13 -14 -14 -14 -14 -15 -15 -15 -16 -16 -16 -16 -16 -17 -17
-1 -2 -2 -2 -2 -3 -4 -4 -5 -4 -4 -7 -7 -10 -10 -11 -11 -10 -10 -10 -10 -10 -11 -12 -12 -13 -13 -13 -13 -14 -14 -14 -14 -15 -15 -15 -16 -16 -16 -16 -16 -16 -17 -17
-2 -2 -2 -3 -3 -4 -5 -5 -5 -5 -6 -8 -9 -10 -12 -11 -10 -10 -10 -10 -11 -11 -12 -12 -13 -13 -13 -13 -14 -14 -14 -14 -15 -15 -15 -16 -16 -16 -16 -16 -16 -16 -17 -17
-3 -3 -4 -5 -5 -5 -5 -6 -7 -8 -9 -10 -11 -12 -12 -11 -10 -10 -10 -11 -12 -12 -13 -13 -13 -13 -14 -14 -14 -14 -14 -14 -15 -15 -15 -15 -16 -16 -16 -16 -16 -16 -16 -17
-4 -5 -6 -6 -6 -7 -8 -8 -9 -11 -12 -12 -12 -11 -10 -10 -10 -11 -11 -12 -13 -13 -13 -13 -13 -14 -14 -14 -14 -14 -14 -15 -15 -15 -15 -15 -16 -16 -16 -16 -16 -16 -16 -17
-7 -7 -8 -8 -8 -8 -9 -10 -11 -12 -12 -11 -10 -10 -11 -11 -11 -11 -12 -13 -14 -14 -13 -14 -14 -14 -14 -14 -14 -15 -15 -15 -15 -15 -15 -15 -16 -16 -16 -16 -16 -16 -16 -16
-8 -8 -8 -9 -9 -10 -11 -11 -11 -11 -10 -11 -11 -11 -11 -11 -12 -13 -13 -13 -14 -14 -14 -14 -14 -14 -15 -15 -15 -15 -15 -15 -15 -15 -15 -15 -16 -16 -16 -16 -17 -17 -17 -17
-9 -10 -10 -10 -11 -11 -11 -11 -11 -11 -11 -11 -12 -12 -12 -13 -13 -13 -14 -14 -14 -14 -15 -15 -15 -15 -15 -15 -15 -15 -15 -15 -15 -15 -15 -15 -16 -16 -16 -17 -17 -17 -17 -17
-10 -10 -10 -11 -11 -11 -11 -11 -11 -12 -12 -12 -12 -13 -13 -13 -14 -14 -14 -14 -14 -15 -15 -15 -15 -15 -15 -15 -15 -15 -16 -16 -15 -15 -15 -15 -16 -16 -16 -17 -17 -17 -17 -17
-12 -11 -11 -11 -12 -12 -12 -12 -12 -12 -13 -13 -13 -14 -14 -14 -13 -14 -15 -15 -15 -16 -16 -16 -16 -16 -16 -16 -16 -16 -16 -16 -16 -16 -16 -16 -16 -16 -16 -17 -17 -17 -17 -17
-12 -12 -12 -12 -12 -12 -13 -13 -13 -13 -13 -13 -13 -14 -14 -14 -14 -14 -15 -15 -16 -16 -16 -17 -17 -17 -17 -16 -16 -16 -17 -17 -17 -16 -16 -16 -16 -16 -16 -17 -17 -17 -17 -18
-12 -12 -13 -13 -13 -13 -13 -13 -13 -13 -13 -13 -13 -14 -14 -15 -15 -15 -15 -16 -16 -17 -17 -17 -17 -17 -17 -17 -17 -17 -17 -17 -17 -16 -16 -16 -16 -16 -16 -16 -17 -17 -18 -18
-13 -13 -14 -14 -14 -14 -14 -14 -14 -14 -14 -14 -14 -14 -15 -15 -15 -16 -16 -16 -17 -17 -17 -18 -18 -18 -18 -18 -17 -17 -17 -17 -17 -17 -17 -17 -16 -16 -16 -16 -17 -17 -18 -18

GFSNGP_700_temp_021.txt.gz
Temp
5 5 5 5 5 5 5 5 4 6 5 5 4 3 3 2 1 1 1 1 0 -1 -2 -2 -2 -2 -4 -5 -5 -5 -6 -6 -7 -7 -8 -8 -9 -9 -10 -11 -12 -12 -13 -13
4 5 5 5 5 5 4 4 4 5 6 5 4 3 3 2 1 1 1 0 -1 -1 -2 -2 -2 -3 -4 -5 -5 -6 -7 -7 -7 -8 -8 -9 -9 -10 -11 -12 -12 -13 -13 -14
4 5 4 3 6 6 6 6 5 5 6 4 4 3 2 2 1 1 0 -1 -1 -2 -2 -3 -3 -4 -5 -5 -6 -6 -7 -7 -8 -8 -9 -9 -10 -11 -11 -12 -13 -13 -14 -14
3 3 1 5 6 6 6 6 6 6 6 4 3 3 2 2 1 1 -0 -1 -2 -2 -3 -3 -4 -5 -5 -6 -6 -7 -8 -8 -8 -9 -9 -10 -11 -11 -12 -13 -13 -14 -14 -15
3 2 4 5 5 5 5 5 5 5 4 3 2 2 2 1 1 0 -1 -2 -3 -3 -3 -4 -5 -6 -6 -6 -7 -7 -8 -8 -9 -9 -10 -11 -12 -12 -12 -13 -14 -14 -15 -15
2 2 -0 4 5 5 4 3 4 4 3 2 1 1 1 1 0 -1 -2 -3 -3 -4 -4 -5 -6 -7 -6 -7 -8 -8 -8 -8 -9 -10 -11 -12 -12 -12 -13 -14 -14 -15 -15 -15
2 1 2 4 3 3 2 3 2 2 2 2 1 1 0 -0 -1 -2 -3 -3 -4 -4 -5 -5 -7 -7 -7 -8 -8 -8 -8 -9 -10 -11 -12 -12 -12 -13 -13 -14 -15 -15 -15 -16
2 1 1 3 2 2 2 2 1 1 0 0 -0 -1 -1 -1 -2 -3 -3 -4 -4 -5 -5 -7 -8 -8 -8 -8 -8 -8 -9 -9 -10 -11 -12 -13 -13 -13 -14 -14 -15 -15 -15 -16
2 3 3 2 1 1 1 0 0 -0 -1 -1 -1 -2 -2 -2 -3 -3 -4 -4 -4 -5 -7 -8 -9 -9 -8 -8 -8 -9 -9 -10 -11 -12 -13 -13 -13 -13 -14 -14 -15 -15 -15 -16
2 2 1 1 0 0 -0 -0 -0 -1 -1 -1 -2 -2 -2 -3 -3 -3 -4 -4 -5 -7 -9 -10 -10 -9 -9 -8 -9 -9 -10 -11 -12 -12 -13 -13 -13 -14 -14 -15 -15 -15 -16 -16
1 1 0 -0 -0 -1 -1 -1 -1 -1 -1 -2 -2 -2 -3 -3 -4 -4 -5 -5 -6 -9 -10 -11 -10 -10 -9 -9 -9 -10 -11 -12 -12 -13 -13 -13 -14 -14 -14 -15 -15 -15 -16 -16
-0 0 -1 -0 -0 -1 -1 -1 -1 -1 -1 -2 -2 -3 -3 -4 -4 -4 -5 -7 -10 -10 -11 -11 -10 -9 -10 -10 -10 -11 -12 -12 -13 -13 -13 -14 -14 -14 -15 -15 -15 -16 -16 -16
-0 -0 -0 -0 -1 -1 -1 -1 -1 -1 -2 -2 -3 -4 -4 -4 -4 -5 -8 -10 -10 -12 -12 -10 -10 -10 -10 -11 -11 -12 -12 -13 -13 -14 -14 -14 -14 -14 -15 -15 -15 -16 -16 -16
-1 -1 -1 -1 -2 -2 -2 -2 -3 -3 -4 -4 -4 -4 -4 -5 -5 -8 -10 -12 -12 -12 -11 -10 -10 -11 -11 -11 -12 -13 -13 -13 -14 -14 -14 -14 -14 -15 -15 -15 -16 -16 -16 -16
-1 -2 -2 -2 -2 -2 -2 -3 -3 -5 -4 -5 -5 -5 -5 -8 -9 -9 -12 -13 -12 -11 -10 -11 -11 -11 -12 -12 -13 -13 -13 -14 -14 -14 -14 -14 -15 -15 -15 -16 -16 -16 -16 -16
-2 -2 -2 -2 -3 -3 -3 -4 -5 -5 -5 -5 -6 -8 -9 -9 -10 -12 -12 -12 -11 -11 -11 -11 -11 -12 -13 -13 -13 -13 -14 -14 -14 -14 -14 -14 -15 -15 -16 -16 -16 -16 -16 -16
-3 -3 -3 -3 -4 -4 -6 -6 -6 -6 -7 -8 -9 -9 -9 -10 -12 -13 -12 -11 -11 -11 -11 -12 -12 -13 -13 -13 -14 -14 -14 -14 -14 -14 -14 -15 -15 -15 -16 -16 -16 -16 -16 -16
-4 -4 -4 -5 -7 -7 -6 -7 -7 -8 -9 -9 -10 -10 -12 -13 -12 -11 -12 -11 -12 -12 -12 -12 -13 -13 -14 -14 -14 -14 -14 -14 -14 -14 -14 -15 -15 -15 -15 -16 -16 -16 -16 -16
-5 -5 -7 -8 -8 -8 -9 -9 -9 -9 -9 -10 -11 -11 -11 -11 -11 -11 -12 -12 -12 -12 -13 -13 -14 -14 -14 -14 -15 -15 -15 -15 -15 -15 -15 -15 -15 -15 -15 -16 -16 -16 -16 -17
-9 -9 -9 -8 -8 -9 -9 -10 -10 -10 -10 -11 -11 -11 -11 -12 -12 -12 -12 -12 -13 -14 -14 -14 -14 -15 -15 -15 -15 -15 -15 -15 -15 -15 -15 -15 -15 -15 -15 -16 -16 -16 -17 -17
-9 -9 -9 -10 -10 -10 -11 -11 -11 -11 -11 -11 -11 -12 -12 -12 -13 -13 -13 -13 -13 -14 -14 -15 -15 -15 -16 -16 -16 -16 -16 -15 -15 -15 -15 -15 -15 -16 -16 -16 -16 -16 -17 -17
-10 -10 -11 -11 -11 -11 -11 -11 -12 -12 -12 -12 -12 -12 -12 -13 -13 -13 -13 -14 -14 -14 -15 -15 -15 -16 -16 -16 -16 -16 -16 -16 -16 -16 -16 -16 -16 -16 -16 -16 -16 -16 -17 -17
-11 -11 -11 -11 -11 -11 -12 -12 -12 -12 -12 -13 -13 -13 -13 -13 -13 -14 -13 -14 -14 -15 -15 -15 -16 -16 -16 -17 -17 -17 -17 -17 -16 -16 -17 -17 -17 -16 -16 -16 -16 -16 -16 -16
-11 -12 -12 -12 -12 -12 -13 -13 -13 -13 -13 -13 -14 -14 -14 -14 -13 -14 -14 -14 -15 -15 -15 -16 -16 -17 -17 -17 -17 -17 -17 -17 -17 -17 -17 -17 -18 -17 -17 -16 -16 -16 -16 -16
-12 -12 -12 -13 -13 -13 -13 -13 -13 -13 -13 -13 -13 -14 -14 -14 -15 -15 -15 -15 -15 -16 -16 -16 -17 -17 -17 -18 -18 -18 -18 -17 -17 -17 -17 -17 -18 -17 -17 -17 -16 -16 -16 -16
-13 -13 -13 -13 -13 -14 -14 -14 -14 -14 -13 -13 -14 -14 -14 -15 -15 -16 -16 -16 -17 -17 -17 -17 -18 -18 -18 -18 -19 -19 -19 -18 -18 -18 -18 -18 -18 -18 -17 -17 -17 -16 -16 -16
-13 -14 -14 -14 -14 -14 -14 -14 -14 -14 -15 -15 -15 -15 -15 -16 -16 -17 -17 -18 -18 -18 -18 -18 -19 -19 -19 -19 -19 -19 -19 -19 -19 -19 -18 -18 -19 -18 -18 -17 -17 -17 -17 -17

GFSNGP_700_temp_024.txt.gz
Temp
5 5 5 5 5 5 4 5 4 6 5 6 5 5 4 4 3 3 2 2 1 1 1 0 -1 -1 -2 -3 -3 -4 -5 -5 -6 -6 -6 -7 -7 -8 -9 -9 -10 -11 -11 -12
5 5 5 5 5 5 4 4 4 5 5 5 6 5 4 4 3 3 2 1 1 1 0 -1 -1 -2 -2 -3 -4 -4 -5 -6 -6 -7 -7 -7 -8 -9 -10 -10 -11 -11 -12 -13
3 4 4 3 6 5 6 6 6 4 6 4 5 4 4 3 3 2 2 1 1 0 -1 -1 -2 -2 -3 -3 -4 -5 -6 -6 -7 -7 -7 -8 -9 -9 -10 -11 -11 -12 -13 -14
3 3 2 5 6 6 5 6 5 6 5 5 4 4 3 2 2 2 2 1 1 -0 -1 -2 -2 -3 -3 -4 -5 -6 -7 -7 -7 -7 -8 -9 -9 -10 -11 -11 -12 -13 -14 -14
3 2 4 5 5 5 5 5 5 4 4 3 3 3 2 1 1 1 1 0 -0 -1 -2 -3 -3 -3 -4 -5 -6 -8 -7 -8 -8 -8 -8 -9 -10 -10 -12 -12 -12 -13 -14 -14
2 2 2 4 5 4 4 3 3 3 3 3 2 2 1 1 1 0 0 -0 -1 -2 -3 -3 -3 -4 -5 -6 -9 -8 -8 -8 -8 -8 -9 -9 -10 -11 -12 -13 -13 -13 -14 -15
2 1 3 4 3 3 2 2 2 2 2 1 1 0 0 0 -0 -1 -1 -2 -2 -3 -4 -4 -4 -4 -6 -9 -9 -9 -8 -8 -8 -9 -9 -10 -11 -12 -13 -13 -13 -14 -14 -15
2 1 2 3 2 2 1 1 1 1 0 -0 -0 -1 -1 -1 -2 -2 -2 -3 -3 -3 -3 -4 -4 -6 -8 -9 -10 -10 -10 -9 -9 -9 -10 -11 -12 -13 -13 -13 -14 -14 -15 -15
2 2 3 2 1 1 0 1 1 0 -0 -0 -1 -1 -1 -2 -2 -2 -2 -3 -3 -3 -4 -4 -7 -9 -11 -10 -11 -10 -9 -9 -9 -10 -11 -12 -12 -13 -13 -13 -14 -14 -15 -15
2 2 1 1 0 0 -0 -0 -0 -1 -0 -1 -1 -1 -1 -1 -2 -3 -3 -3 -3 -4 -4 -6 -8 -10 -11 -11 -11 -9 -9 -10 -10 -11 -12 -12 -13 -13 -13 -14 -14 -15 -15 -15
1 1 0 0 -0 -0 -1 -1 -1 -1 -1 -1 -2 -2 -2 -2 -3 -3 -3 -4 -4 -5 -8 -9 -9 -10 -11 -11 -10 -10 -10 -10 -11 -12 -12 -13 -13 -14 -14 -14 -15 -15 -15 -15
0 -0 -0 -0 -0 -1 -1 -1 -1 -1 -2 -2 -2 -3 -3 -3 -3 -4 -4 -4 -5 -7 -10 -11 -10 -12 -11 -10 -10 -10 -11 -11 -12 -12 -13 -13 -14 -14 -14 -14 -15 -15 -15 -15
-0 -0 -0 -1 -1 -1 -1 -2 -2 -2 -2 -2 -3 -3 -3 -4 -5 -4 -5 -6 -9 -10 -9 -11 -13 -12 -11 -10 -11 -11 -11 -12 -12 -13 -13 -13 -14 -14 -14 -14 -15 -15 -15 -15
-0 -1 -1 -1 -2 -2 -2 -2 -2 -2 -3 -3 -4 -5 -4 -5 -5 -6 -8 -9 -9 -10 -12 -12 -12 -11 -11 -11 -11 -12 -12 -13 -13 -13 -13 -14 -14 -14 -15 -15 -15 -15 -15 -15
-1 -2 -2 -2 -2 -2 -2 -3 -3 -3 -4 -5 -5 -5 -5 -7 -8 -9 -8 -9 -10 -12 -13 -12 -11 -11 -11 -12 -12 -13 -13 -13 -13 -13 -14 -14 -14 -14 -15 -15 -15 -15 -16 -16
-2 -2 -2 -3 -3 -3 -4 -4 -5 -5 -6 -6 -7 -7 -8 -9 -8 -9 -10 -11 -12 -12 -11 -11 -12 -12 -12 -13 -13 -13 -13 -13 -14 -14 -14 -14 -14 -14 -15 -15 -15 -15 -16 -16
-3 -3 -4 -4 -4 -5 -6 -7 -7 -8 -8 -9 -9 -9 -9 -9 -9 -10 -11 -11 -11 -12 -12 -12 -12 -12 -13 -13 -13 -14 -14 -14 -14 -14 -15 -15 -15 -15 -15 -15 -15 -15 -16 -16
-4 -4 -4 -4 -5 -7 -8 -8 -9 -9 -9 -9 -9 -9 -10 -10 -11 -11 -11 -11 -11 -12 -12 -13 -13 -13 -13 -14 -14 -14 -15 -15 -15 -15 -15 -15 -15 -15 -15 -15 -15 -16 -16 -16
-5 -5 -6 -7 -9 -9 -9 -9 -9 -9 -10 -10 -10 -10 -11 -11 -11 -11 -11 -12 -12 -12 -13 -13 -13 -14 -14 -14 -15 -15 -15 -15 -16 -16 -16 -15 -15 -15 -15 -15 -15 -16 -16 -16
-8 -8 -9 -9 -9 -9 -9 -10 -10 -10 -10 -10 -11 -11 -11 -11 -12 -12 -12 -12 -13 -13 -13 -13 -14 -14 -14 -15 -15 -15 -16 -16 -16 -16 -16 -16 -16 -16 -16 -16 -16 -16 -16 -16
-9 -9 -9 -9 -10 -10 -11 -10 -11 -11 -11 -11 -12 -12 -12 -12 -13 -13 -13 -13 -13 -13 -13 -14 -14 -14 -15 -15 -16 -16 -16 -16 -16 -17 -17 -17 -16 -16 -17 -17 -16 -16 -16 -16
-10 -10 -10 -10 -11 -11 -11 -11 -11 -12 -12 -12 -13 -13 -13 -13 -13 -13 -13 -14 -13 -14 -14 -14 -15 -15 -16 -16 -16 -17 -17 -17 -17 -17 -17 -17 -17 -17 -17 -17 -17 -17 -16 -16
-10 -11 -11 -11 -11 -12 -12 -12 -12 -12 -13 -13 -13 -13 -13 -13 -13 -13 -13 -14 -14 -14 -15 -15 -15 -16 -16 -17 -18 -18 -18 -18 -18 -18 -18 -17 -17 -17 -17 -18 -18 -17 -17 -17
-12 -12 -12 -12 -12 -12 -13 -13 -13 -13 -13 -13 -13 -14 -14 -14 -14 -15 -15 -15 -15 -16 -16 -17 -17 -17 -17 -18 -18 -18 -18 -18 -18 -18 -18 -18 -18 -18 -18 -18 -18 -18 -17 -17
-12 -12 -12 -13 -13 -13 -13 -13 -13 -13 -13 -14 -14 -14 -14 -15 -15 -15 -16 -16 -16 -17 -17 -17 -18 -18 -18 -18 -18 -18 -19 -19 -19 -19 -19 -19 -18 -18 -18 -18 -19 -18 -18 -17
-13 -13 -13 -13 -13 -14 -14 -14 -14 -14 -14 -14 -14 -15 -15 -15 -16 -16 -17 -17 -17 -18 -18 -18 -19 -19 -19 -19 -19 -19 -19 -19 -19 -19 -19 -19 -19 -19 -19 -19 -19 -19 -18 -18
-13 -14 -14 -14 -14 -14 -14 -14 -14 -14 -15 -15 -15 -16 -16 -17 -17 -17 -18 -18 -18 -18 -19 -19 -20 -20 -20 -19 -19 -19 -19 -19 -19 -19 -19 -20 -19 -19 -19 -19 -20 -20 -19 -19

GFSNGP_700_temp_030.txt.gz
Temp
7 7 6 6 7 7 7 7 6 6 7 8 8 7 7 6 5 5 4 4 3 3 2 1 0 -0 -0 -0 0 0 -1 -2 -3 -3 -3 -5 -7 -8 -8 -8 -9 -9 -9 -9
5 6 6 5 6 6 7 7 7 7 7 7 7 6 6 5 4 4 4 3 3 2 2 1 0 -0 -1 -1 -1 -0 -3 -3 -3 -4 -4 -5 -8 -9 -9 -10 -11 -9 -10 -11
4 4 5 5 6 6 6 6 7 7 7 6 6 6 5 4 3 3 3 3 2 2 1 0 -1 -1 -1 -2 -2 -2 -3 -3 -4 -4 -6 -8 -10 -10 -10 -11 -10 -10 -10 -11
4 4 3 6 6 6 6 6 6 6 6 5 5 4 4 4 3 3 2 1 1 1 1 -0 -1 -2 -2 -2 -3 -3 -4 -4 -6 -8 -7 -9 -11 -11 -11 -11 -10 -11 -11 -12
3 3 4 5 6 5 5 5 5 4 4 3 3 4 3 3 2 2 2 2 1 1 0 -1 -1 -2 -2 -2 -2 -4 -4 -6 -6 -9 -10 -12 -12 -13 -11 -12 -10 -11 -12 -12
2 2 2 4 5 5 5 4 2 3 2 3 3 2 2 1 1 1 1 0 0 -0 -1 -2 -2 -2 -2 -3 -4 -4 -4 -5 -9 -10 -13 -12 -13 -13 -12 -11 -11 -11 -12 -13
2 2 3 4 3 4 3 2 2 2 2 2 2 1 1 1 1 0 -1 -1 -1 -2 -2 -3 -3 -3 -3 -3 -4 -4 -5 -8 -10 -11 -11 -11 -12 -11 -10 -11 -12 -12 -12 -13
1 1 1 3 3 2 2 2 2 2 2 1 1 1 1 -0 -1 -1 -1 -2 -2 -2 -2 -3 -3 -3 -3 -4 -3 -5 -8 -9 -10 -10 -12 -13 -12 -11 -10 -11 -12 -12 -13 -13
3 3 2 2 2 1 1 2 1 1 0 -0 -0 -1 -1 -1 -2 -2 -2 -2 -2 -2 -2 -3 -4 -4 -4 -5 -7 -8 -9 -9 -9 -10 -12 -12 -11 -10 -11 -12 -12 -13 -13 -14
2 3 2 2 1 0 -1 0 1 0 -0 -1 -1 -1 -1 -2 -3 -3 -3 -2 -3 -3 -4 -4 -5 -5 -5 -7 -9 -8 -9 -9 -10 -11 -11 -11 -11 -12 -12 -12 -13 -13 -13 -14
1 2 2 1 0 -0 0 -0 -0 -0 -1 -1 -1 -2 -2 -2 -2 -3 -3 -4 -4 -5 -5 -5 -6 -7 -8 -8 -9 -9 -10 -11 -11 -11 -11 -12 -12 -12 -12 -13 -13 -13 -14 -14
1 1 1 1 1 0 -0 -0 -0 -1 -1 -1 -2 -2 -2 -3 -3 -4 -4 -5 -6 -6 -6 -7 -8 -8 -9 -9 -9 -10 -11 -11 -11 -12 -12 -12 -12 -12 -13 -13 -14 -14 -14 -15
1 1 0 0 0 0 0 -1 -1 -2 -2 -2 -2 -3 -3 -4 -4 -5 -5 -6 -6 -7 -8 -8 -8 -9 -10 -10 -11 -11 -12 -12 -12 -12 -12 -13 -13 -13 -13 -13 -14 -14 -14 -15
1 0 -0 -0 -0 0 -1 -1 -2 -2 -3 -3 -3 -3 -4 -4 -5 -6 -7 -7 -8 -8 -8 -9 -10 -10 -11 -11 -11 -11 -12 -12 -12 -13 -13 -14 -14 -14 -14 -14 -14 -14 -15 -15
0 -0 -0 -1 -2 -2 -2 -2 -3 -3 -3 -4 -4 -4 -5 -6 -6 -7 -7 -8 -9 -9 -9 -10 -10 -11 -11 -11 -11 -12 -12 -13 -13 -13 -13 -13 -14 -14 -14 -15 -15 -15 -15 -15
0 -1 -1 -2 -2 -3 -3 -3 -4 -4 -4 -5 -6 -6 -7 -8 -8 -8 -9 -9 -10 -10 -11 -11 -11 -11 -12 -12 -12 -13 -13 -14 -14 -14 -15 -15 -15 -15 -15 -16 -16 -16 -16 -16
-2 -2 -2 -3 -3 -4 -4 -4 -5 -5 -6 -7 -8 -8 -8 -9 -9 -9 -10 -10 -10 -11 -11 -11 -11 -12 -12 -13 -13 -13 -14 -15 -15 -15 -15 -16 -16 -16 -17 -17 -17 -17 -16 -16
-2 -3 -3 -4 -4 -5 -5 -6 -6 -7 -8 -8 -9 -9 -9 -9 -10 -10 -11 -11 -11 -12 -12 -12 -12 -12 -12 -13 -13 -14 -14 -14 -15 -15 -16 -16 -16 -17 -17 -17 -17 -17 -17 -17
-4 -4 -5 -5 -6 -6 -7 -7 -8 -8 -9 -9 -10 -10 -10 -10 -11 -11 -11 -12 -12 -12 -12 -12 -12 -13 -13 -13 -14 -14 -15 -15 -16 -16 -16 -16 -16 -17 -17 -17 -17 -18 -18 -18
-5 -6 -6 -6 -7 -8 -8 -9 -9 -10 -10 -10 -10 -11 -11 -11 -12 -12 -12 -12 -12 -12 -12 -12 -13 -13 -13 -14 -14 -15 -16 -16 -16 -17 -17 -16 -17 -17 -17 -17 -18 -18 -18 -18
-7 -7 -8 -8 -9 -9 -10 -10 -10 -10 -11 -11 -11 -12 -12 -12 -12 -12 -12 -12 -12 -13 -13 -13 -14 -13 -14 -15 -16 -16 -16 -16 -17 -17 -17 -17 -17 -18 -18 -18 -18 -18 -18 -18
-8 -8 -9 -9 -10 -10 -10 -11 -11 -11 -11 -12 -12 -12 -12 -12 -12 -13 -13 -13 -13 -13 -14 -14 -14 -15 -16 -16 -16 -16 -17 -17 -18 -18 -18 -18 -18 -18 -18 -18 -19 -18 -18 -19
-9 -9 -10 -10 -11 -11 -11 -11 -11 -12 -12 -12 -12 -12 -13 -13 -13 -13 -13 -13 -14 -14 -15 -16 -16 -16 -16 -16 -17 -17 -18 -19 -19 -19 -19 -18 -18 -18 -19 -19 -19 -19 -19 -19
-10 -10 -11 -11 -11 -11 -12 -12 -12 -12 -13 -13 -13 -13 -13 -13 -14 -14 -14 -15 -15 -16 -16 -17 -17 -17 -17 -17 -18 -18 -19 -20 -20 -21 -20 -20 -19 -19 -19 -19 -19 -19 -19 -19
-11 -11 -12 -12 -12 -12 -13 -13 -14 -14 -14 -14 -14 -14 -14 -14 -14 -15 -15 -16 -16 -17 -17 -17 -18 -18 -19 -19 -20 -21 -22 -22 -22 -22 -21 -21 -20 -20 -20 -20 -20 -20 -20 -19
-12 -12 -12 -13 -13 -13 -14 -14 -14 -14 -14 -14 -15 -15 -15 -15 -15 -16 -17 -17 -17 -18 -18 -18 -19 -19 -20 -21 -22 -23 -23 -23 -23 -22 -22 -22 -21 -21 -21 -21 -20 -20 -20 -20
-12 -13 -13 -13 -14 -14 -14 -15 -15 -15 -15 -15 -15 -15 -15 -16 -16 -17 -18 -18 -18 -19 -19 -19 -20 -21 -21 -22 -22 -23 -24 -24 -23 -23 -23 -23 -22 -22 -22 -21 -21 -21 -21 -20

GFSNGP_700_temp_033.txt.gz
Temp
6 6 6 6 6 6 7 7 7 7 6 7 6 7 6 6 5 5 5 4 4 3 3 3 2 1 1 0 -1 -1 -1 -2 -3 -3 -3 -4 -4 -5 -7 -9 -10 -11 -11 -11
5 5 6 5 6 6 6 7 7 7 7 7 6 6 6 5 5 5 4 4 4 3 3 2 2 1 1 -0 -1 -1 -2 -2 -3 -3 -4 -4 -5 -7 -9 -10 -12 -11 -12 -11
4 5 5 5 6 6 6 6 6 6 6 6 6 6 5 4 4 4 4 4 3 3 2 2 1 1 1 -0 -1 -1 -2 -3 -2 -3 -3 -4 -5 -7 -10 -11 -12 -13 -13 -13
4 4 -0 5 5 6 6 5 5 5 5 5 5 5 4 4 4 4 3 3 2 2 2 1 1 0 -0 -1 -1 -2 -3 -3 -3 -3 -4 -4 -6 -9 -11 -11 -11 -12 -13 -13
3 3 4 5 5 5 5 4 5 5 5 5 4 4 4 3 2 2 2 2 1 1 1 0 -1 -1 -1 -1 -2 -3 -3 -4 -4 -4 -4 -5 -9 -10 -9 -10 -12 -13 -12 -12
2 3 -2 4 4 5 5 3 3 4 4 4 4 3 3 2 1 1 0 0 0 0 0 0 -1 -1 -1 -2 -2 -3 -3 -3 -3 -4 -5 -9 -9 -9 -10 -10 -12 -12 -11 -12
2 3 3 3 4 4 4 3 2 3 3 3 2 2 1 0 -0 -0 0 0 -0 -0 -1 -2 -2 -3 -3 -3 -3 -3 -3 -3 -4 -7 -8 -9 -9 -10 -10 -11 -11 -11 -12 -12
1 1 2 3 3 3 3 2 2 2 2 2 2 1 1 0 -0 -0 -0 -0 -0 -1 -3 -3 -3 -3 -3 -4 -4 -4 -5 -5 -7 -8 -9 -10 -10 -11 -11 -11 -11 -12 -13 -13
3 3 3 2 2 2 2 2 2 2 2 1 1 0 -0 -1 -1 -1 -1 -2 -2 -3 -3 -4 -4 -5 -5 -5 -6 -6 -7 -8 -8 -9 -9 -10 -11 -11 -11 -12 -12 -13 -13 -13
2 2 2 2 1 1 1 2 2 1 1 0 -0 -1 -1 -1 -2 -2 -3 -4 -3 -4 -5 -5 -5 -5 -6 -5 -6 -7 -8 -8 -9 -10 -11 -11 -11 -12 -12 -12 -12 -12 -13 -14
2 2 2 1 1 1 1 1 1 -0 -0 -1 -1 -1 -2 -2 -3 -3 -4 -4 -5 -6 -6 -6 -6 -6 -7 -7 -8 -8 -9 -9 -10 -11 -11 -11 -12 -12 -12 -13 -13 -13 -14 -14
2 2 2 2 2 1 1 -0 -0 -1 -1 -1 -2 -2 -2 -3 -3 -3 -4 -4 -5 -5 -6 -6 -7 -7 -8 -9 -9 -10 -10 -10 -11 -11 -12 -12 -12 -13 -13 -13 -14 -14 -15 -15
2 2 1 1 1 1 0 -0 -0 -1 -1 -2 -2 -2 -3 -3 -4 -4 -5 -5 -6 -6 -7 -8 -9 -9 -9 -9 -10 -10 -11 -11 -11 -12 -12 -13 -13 -13 -13 -13 -14 -14 -15 -15
1 1 1 1 1 0 -0 -1 -1 -1 -2 -2 -3 -3 -4 -5 -5 -6 -6 -7 -8 -8 -9 -9 -9 -10 -10 -10 -10 -11 -11 -12 -12 -12 -13 -13 -13 -14 -14 -14 -14 -14 -14 -15
1 1 1 0 -0 -1 -1 -2 -2 -2 -3 -4 -4 -5 -5 -6 -6 -7 -8 -8 -9 -9 -9 -10 -10 -10 -11 -11 -12 -12 -12 -12 -13 -13 -13 -14 -15 -15 -15 -15 -15 -15 -15 -16
1 0 -0 -1 -2 -2 -3 -3 -3 -4 -5 -5 -5 -6 -6 -7 -8 -8 -9 -9 -10 -10 -10 -11 -11 -11 -12 -12 -12 -12 -13 -13 -13 -13 -14 -15 -15 -15 -16 -16 -16 -16 -16 -16
-0 -1 -1 -2 -2 -2 -3 -4 -5 -5 -6 -6 -7 -8 -8 -9 -9 -9 -10 -10 -11 -11 -11 -11 -12 -12 -12 -12 -12 -12 -13 -13 -13 -14 -15 -15 -16 -16 -16 -16 -16 -17 -17 -17
-2 -2 -3 -3 -3 -4 -5 -5 -6 -6 -7 -8 -8 -9 -9 -10 -10 -11 -11 -11 -11 -12 -12 -12 -12 -12 -12 -12 -12 -13 -13 -13 -14 -14 -15 -15 -16 -17 -17 -17 -17 -17 -17 -17
-3 -3 -3 -4 -5 -6 -6 -7 -7 -8 -8 -9 -9 -10 -10 -11 -11 -11 -12 -12 -12 -12 -12 -12 -12 -12 -12 -12 -13 -13 -14 -14 -15 -15 -16 -16 -16 -17 -17 -17 -17 -17 -17 -18
-4 -5 -6 -6 -7 -7 -8 -8 -9 -9 -10 -10 -11 -11 -11 -12 -12 -12 -12 -12 -12 -12 -12 -12 -12 -12 -13 -13 -14 -15 -15 -15 -16 -16 -16 -17 -17 -17 -17 -17 -17 -18 -18 -18
-6 -7 -8 -8 -8 -9 -9 -9 -10 -10 -11 -11 -11 -12 -12 -12 -12 -12 -13 -13 -12 -13 -13 -13 -13 -13 -14 -15 -15 -16 -16 -16 -16 -17 -17 -18 -18 -18 -19 -18 -18 -18 -18 -18
-8 -8 -8 -9 -10 -10 -10 -10 -11 -11 -11 -12 -12 -12 -13 -13 -13 -13 -13 -13 -13 -13 -13 -13 -14 -15 -16 -16 -16 -17 -17 -17 -17 -18 -19 -20 -21 -20 -19 -19 -18 -18 -19 -19
-8 -9 -10 -10 -10 -11 -11 -11 -12 -12 -12 -12 -13 -13 -13 -13 -13 -13 -13 -13 -13 -14 -14 -15 -16 -17 -17 -17 -18 -18 -18 -19 -19 -20 -21 -21 -22 -21 -20 -20 -20 -20 -20 -19
-9 -10 -10 -11 -11 -11 -12 -12 -12 -12 -13 -13 -13 -13 -13 -14 -14 -14 -14 -14 -15 -15 -16 -17 -17 -18 -18 -18 -19 -19 -20 -20 -21 -22 -23 -23 -23 -22 -22 -21 -21 -21 -20 -20
-10 -11 -11 -11 -12 -12 -13 -13 -13 -13 -13 -14 -14 -14 -14 -14 -14 -15 -15 -15 -16 -16 -17 -18 -18 -19 -19 -19 -20 -20 -21 -21 -22 -23 -23 -23 -23 -23 -23 -22 -22 -21 -21 -21
-11 -11 -12 -12 -12 -13 -13 -13 -14 -14 -14 -15 -15 -15 -15 -15 -15 -15 -16 -16 -17 -18 -18 -19 -19 -19 -20 -20 -21 -21 -21 -22 -22 -23 -23 -23 -23 -23 -23 -23 -23 -22 -22 -22
-12 -12 -12 -13 -13 -14 -14 -14 -15 -15 -15 -15 -15 -15 -15 -16 -16 -16 -17 -17 -18 -19 -19 -20 -20 -20 -20 -21 -21 -22 -22 -22 -22 -23 -23 -23 -23 -23 -23 -23 -23 -23 -22 -22

GFSNGP_700_temp_036.txt.gz
Temp
6 6 6 6 6 6 6 6 6 7 7 7 6 6 6 6 6 5 5 4 4 3 3 3 2 2 2 1 0 -0 -0 -1 -1 -2 -2 -2 -3 -3 -4 -4 -4 -5 -8 -10
6 6 6 5 6 6 6 6 6 6 6 6 6 6 5 5 5 5 4 4 4 3 3 3 2 1 1 1 0 -0 -1 -1 -2 -2 -2 -2 -3 -3 -4 -4 -5 -7 -9 -9
5 5 5 4 5 5 6 6 6 5 5 5 6 5 5 4 4 4 4 4 4 3 3 3 2 1 1 0 0 -1 -1 -2 -3 -3 -3 -3 -4 -4 -4 -5 -8 -9 -9 -9
4 4 -1 5 5 5 5 5 5 5 5 4 4 4 4 4 3 3 3 3 2 2 2 2 1 1 1 -0 -1 -1 -2 -2 -3 -3 -3 -3 -4 -4 -5 -8 -8 -9 -9 -9
3 3 4 4 4 4 5 4 4 4 4 4 4 4 3 3 3 2 2 2 2 1 1 1 0 -0 -1 -1 -1 -2 -2 -2 -3 -3 -3 -4 -4 -7 -8 -9 -9 -9 -10 -10
3 3 -2 4 5 5 5 4 4 3 3 3 3 3 3 3 2 2 1 1 1 1 0 -0 -1 -1 -2 -2 -3 -3 -3 -3 -3 -4 -4 -6 -7 -8 -9 -9 -9 -10 -11 -11
3 3 3 4 4 4 4 4 4 4 3 3 3 3 3 2 2 1 1 0 -0 -1 -1 -2 -2 -3 -3 -3 -3 -3 -3 -5 -5 -5 -6 -7 -7 -8 -8 -9 -11 -11 -11 -11
2 2 2 3 3 3 3 4 3 3 3 3 2 2 1 1 0 -0 -1 -1 -2 -2 -3 -4 -4 -4 -4 -4 -5 -5 -5 -6 -6 -7 -7 -8 -8 -9 -10 -11 -11 -11 -11 -12
3 3 3 3 2 3 3 3 3 2 2 1 1 0 0 -0 -1 -1 -2 -2 -3 -3 -4 -4 -4 -4 -5 -6 -6 -6 -6 -6 -7 -8 -9 -9 -10 -10 -11 -11 -11 -11 -12 -12
3 2 2 2 2 2 2 2 2 2 1 1 0 -0 -0 -1 -1 -2 -2 -2 -4 -4 -4 -4 -5 -6 -6 -6 -6 -6 -7 -8 -8 -9 -10 -10 -10 -11 -11 -11 -12 -12 -12 -12
2 2 2 1 1 1 1 1 1 1 0 -0 -0 -1 -1 -1 -2 -2 -3 -4 -5 -5 -6 -6 -6 -7 -7 -7 -7 -8 -8 -9 -10 -10 -10 -10 -11 -11 -12 -12 -12 -13 -13 -13
2 2 2 2 1 1 1 0 0 -0 -1 -1 -1 -1 -2 -2 -3 -3 -4 -4 -5 -5 -6 -6 -7 -7 -8 -8 -8 -9 -10 -10 -10 -10 -11 -11 -11 -12 -12 -13 -13 -14 -14 -14
3 2 2 2 1 1 1 0 -0 -1 -1 -1 -2 -2 -2 -3 -3 -4 -5 -5 -6 -6 -7 -7 -7 -8 -9 -9 -9 -10 -10 -11 -11 -11 -11 -12 -12 -12 -12 -13 -14 -15 -15 -15
2 2 1 1 1 1 0 -0 -0 -1 -1 -2 -2 -3 -3 -4 -4 -5 -6 -6 -7 -7 -8 -8 -9 -9 -9 -10 -10 -10 -11 -11 -11 -11 -12 -12 -13 -13 -14 -14 -15 -15 -16 -16
2 1 1 1 0 -0 -0 -1 -1 -2 -2 -3 -3 -4 -5 -5 -6 -6 -7 -7 -8 -8 -9 -9 -10 -10 -10 -11 -11 -11 -11 -12 -12 -12 -12 -13 -13 -14 -14 -15 -15 -16 -16 -16
1 1 1 0 -0 -1 -1 -2 -2 -3 -3 -4 -5 -6 -6 -6 -7 -7 -8 -8 -9 -9 -10 -10 -11 -11 -11 -11 -11 -12 -11 -12 -12 -12 -13 -13 -14 -14 -15 -15 -16 -16 -17 -17
0 0 -0 -1 -1 -2 -2 -3 -4 -4 -5 -6 -6 -6 -7 -8 -8 -9 -9 -10 -10 -10 -11 -11 -11 -11 -12 -12 -12 -12 -12 -12 -13 -13 -14 -14 -15 -15 -15 -16 -16 -16 -17 -17
0 -0 -1 -1 -2 -3 -4 -5 -6 -6 -7 -7 -8 -8 -9 -9 -10 -10 -11 -11 -11 -11 -12 -12 -12 -12 -12 -12 -12 -12 -12 -13 -13 -14 -14 -15 -15 -16 -16 -16 -16 -16 -17 -17
-1 -2 -2 -3 -4 -4 -5 -6 -7 -8 -8 -9 -9 -9 -10 -10 -11 -11 -11 -12 -12 -12 -12 -12 -12 -12 -12 -12 -13 -13 -14 -14 -15 -15 -16 -16 -16 -16 -16 -17 -17 -17 -18 -17
-3 -3 -4 -5 -6 -7 -7 -8 -9 -9 -10 -10 -10 -10 -11 -11 -11 -12 -12 -12 -12 -12 -12 -13 -13 -13 -13 -13 -14 -14 -15 -16 -16 -16 -17 -17 -17 -17 -18 -19 -19 -18 -18 -18
-4 -5 -6 -7 -8 -8 -9 -9 -10 -11 -11 -11 -11 -11 -12 -12 -12 -13 -13 -13 -13 -13 -13 -13 -13 -13 -14 -14 -15 -16 -16 -17 -17 -17 -18 -18 -18 -19 -20 -22 -21 -20 -19 -18
-7 -7 -8 -8 -9 -9 -10 -11 -11 -11 -11 -12 -12 -12 -12 -13 -13 -13 -13 -13 -13 -14 -13 -14 -14 -15 -15 -16 -16 -17 -18 -18 -18 -19 -20 -20 -20 -20 -21 -22 -22 -21 -21 -20
-8 -8 -9 -9 -10 -10 -11 -12 -12 -12 -12 -12 -12 -13 -13 -13 -14 -14 -14 -14 -14 -14 -14 -15 -15 -16 -17 -17 -18 -18 -19 -19 -20 -20 -20 -21 -21 -22 -23 -23 -23 -22 -22 -22
-9 -9 -9 -10 -11 -11 -12 -12 -12 -12 -13 -13 -13 -13 -13 -14 -14 -14 -14 -14 -14 -15 -16 -16 -16 -17 -18 -18 -19 -19 -20 -20 -21 -21 -21 -21 -22 -22 -23 -23 -23 -23 -23 -23
-10 -10 -11 -11 -12 -12 -12 -12 -13 -13 -13 -13 -13 -14 -14 -14 -15 -15 -15 -15 -15 -16 -17 -17 -18 -18 -19 -19 -20 -20 -20 -21 -21 -21 -22 -22 -22 -22 -23 -23 -23 -23 -23 -23
-11 -11 -11 -12 -12 -12 -13 -13 -13 -14 -14 -14 -14 -15 -15 -15 -15 -16 -16 -16 -16 -17 -18 -18 -19 -19 -19 -20 -20 -21 -21 -21 -22 -22 -22 -22 -22 -22 -23 -23 -23 -23 -23 -23
-11 -12 -12 -12 -12 -13 -13 -14 -14 -14 -14 -15 -15 -16 -16 -16 -16 -17 -17 -17 -18 -18 -19 -19 -20 -20 -20 -21 -21 -22 -22 -22 -22 -22 -22 -22 -22 -22 -22 -23 -23 -23 -23 -23

GFSNGP_700_temp_039.txt.gz
Temp
6 6 6 6 6 6 6 6 6 6 6 6 6 6 6 6 6 6 5 5 5 4 4 3 3 2 2 2 1 1 0 0 -0 -1 -2 -2 -3 -3 -3 -3 -4 -4 -5 -5
6 6 6 6 6 6 5 5 6 6 6 6 6 6 6 6 6 6 5 5 4 4 4 3 3 2 2 1 1 0 -0 -1 -1 -2 -2 -3 -4 -3 -3 -3 -4 -4 -6 -8
5 5 5 4 5 6 5 5 6 5 6 6 6 6 5 5 5 5 5 4 4 3 3 3 2 2 1 1 0 0 -0 -1 -2 -3 -2 -3 -2 -3 -4 -4 -6 -7 -7 -8
5 4 -1 5 5 5 5 5 5 5 6 5 5 5 5 4 4 4 4 3 3 2 2 1 1 1 0 0 -0 -1 -1 -2 -3 -4 -3 -3 -3 -4 -4 -6 -6 -7 -8 -9
4 3 4 4 4 4 5 5 5 5 5 5 4 4 4 4 3 3 2 2 1 1 1 0 0 0 0 -0 -0 -1 -2 -2 -3 -3 -3 -4 -4 -4 -6 -7 -7 -7 -8 -9
3 3 -2 4 4 4 4 4 4 4 4 4 4 3 3 3 2 2 2 1 1 1 0 0 0 0 -0 -0 -1 -2 -3 -3 -4 -3 -3 -5 -5 -7 -7 -7 -8 -8 -9 -10
4 3 3 4 4 4 3 4 4 4 3 3 3 2 2 2 2 2 1 1 0 0 -0 -0 -1 -1 -1 -2 -3 -4 -4 -4 -4 -5 -6 -6 -7 -7 -7 -8 -9 -9 -10 -10
3 2 2 3 3 3 4 4 4 3 3 2 2 2 2 2 1 1 0 0 -0 -1 -1 -1 -2 -3 -4 -5 -4 -5 -6 -6 -6 -6 -7 -7 -7 -8 -9 -9 -10 -10 -10 -11
3 3 3 3 3 3 3 3 3 3 2 2 1 1 1 1 0 0 -0 -1 -1 -2 -2 -4 -5 -5 -5 -5 -5 -6 -7 -7 -7 -7 -8 -8 -9 -9 -10 -10 -10 -10 -11 -11
3 3 3 3 3 3 3 3 2 2 2 1 1 1 0 -0 -1 -1 -1 -2 -2 -3 -5 -5 -5 -5 -5 -7 -7 -7 -7 -7 -8 -8 -9 -9 -10 -10 -10 -10 -11 -11 -11 -12
3 3 3 3 2 2 2 2 2 1 1 1 0 0 -0 -1 -1 -1 -2 -2 -3 -4 -5 -6 -6 -6 -6 -7 -7 -8 -8 -8 -9 -9 -9 -10 -10 -10 -11 -11 -11 -12 -12 -13
5 4 3 3 2 2 2 1 1 1 0 0 -0 -1 -1 -1 -2 -2 -3 -3 -4 -5 -5 -6 -6 -7 -7 -8 -8 -8 -9 -9 -10 -10 -10 -10 -11 -10 -11 -12 -12 -13 -13 -14
4 3 3 2 2 2 1 1 1 0 -0 -1 -1 -1 -2 -2 -2 -3 -4 -4 -5 -6 -6 -7 -7 -8 -8 -9 -9 -9 -10 -10 -10 -10 -10 -11 -11 -11 -11 -11 -12 -12 -13 -15
3 2 2 2 2 1 1 1 0 -0 -1 -1 -1 -2 -2 -3 -4 -4 -5 -5 -6 -7 -8 -8 -8 -9 -9 -9 -10 -10 -10 -10 -11 -11 -11 -11 -11 -12 -12 -12 -12 -12 -13 -14
3 2 2 2 1 1 1 0 -0 -1 -1 -2 -2 -3 -4 -4 -5 -5 -6 -7 -8 -8 -8 -9 -9 -9 -10 -10 -11 -11 -11 -11 -11 -11 -12 -12 -12 -13 -13 -13 -14 -14 -14 -14
2 2 2 1 1 0 -0 -1 -1 -2 -2 -3 -4 -4 -5 -6 -6 -7 -8 -8 -8 -9 -9 -10 -10 -10 -11 -11 -11 -11 -11 -12 -12 -12 -12 -13 -13 -14 -14 -15 -15 -15 -15 -15
2 2 1 1 -0 -1 -1 -1 -2 -3 -4 -4 -5 -6 -7 -7 -8 -8 -8 -9 -10 -10 -10 -11 -11 -11 -11 -11 -12 -12 -12 -12 -12 -13 -13 -14 -14 -15 -15 -16 -16 -16 -16 -16
1 0 -0 -1 -1 -2 -2 -3 -3 -4 -5 -6 -7 -8 -8 -9 -10 -10 -10 -10 -10 -11 -11 -11 -12 -12 -12 -12 -12 -12 -12 -13 -13 -13 -14 -15 -16 -16 -17 -17 -17 -17 -17 -17
-1 -2 -2 -2 -3 -3 -4 -4 -5 -6 -7 -8 -8 -9 -10 -11 -11 -11 -11 -11 -11 -12 -12 -12 -13 -13 -13 -13 -13 -13 -13 -14 -14 -15 -16 -17 -17 -18 -18 -18 -18 -18 -19 -19
-2 -3 -4 -4 -4 -5 -6 -7 -7 -8 -9 -9 -10 -11 -12 -11 -11 -11 -11 -12 -12 -13 -13 -13 -13 -13 -13 -13 -13 -14 -14 -15 -15 -16 -17 -18 -18 -19 -19 -20 -20 -20 -20 -22
-4 -5 -5 -5 -6 -7 -7 -8 -9 -9 -9 -10 -12 -11 -11 -11 -12 -12 -12 -13 -13 -13 -13 -13 -13 -13 -14 -14 -14 -15 -15 -16 -17 -18 -18 -19 -19 -20 -20 -21 -21 -21 -22 -22
-6 -6 -7 -7 -8 -9 -9 -9 -10 -10 -11 -12 -11 -12 -12 -12 -13 -13 -13 -14 -14 -14 -14 -14 -14 -14 -14 -15 -15 -16 -17 -17 -18 -19 -19 -20 -20 -21 -21 -21 -21 -22 -22 -23
-7 -8 -8 -9 -9 -9 -10 -10 -11 -12 -12 -12 -12 -13 -13 -13 -14 -14 -14 -14 -14 -14 -14 -14 -14 -15 -15 -16 -17 -17 -18 -19 -19 -20 -20 -21 -21 -21 -21 -22 -22 -22 -22 -23
-9 -9 -9 -9 -10 -10 -11 -12 -12 -12 -12 -13 -13 -14 -14 -14 -14 -14 -14 -14 -14 -14 -14 -15 -15 -16 -16 -17 -18 -19 -19 -20 -20 -21 -21 -22 -22 -22 -22 -22 -22 -22 -22 -23
-9 -10 -10 -10 -11 -11 -12 -12 -13 -13 -13 -13 -14 -14 -14 -14 -14 -14 -15 -15 -15 -15 -15 -16 -16 -17 -18 -19 -19 -20 -20 -21 -21 -22 -22 -22 -22 -22 -22 -22 -22 -22 -22 -22
-10 -10 -11 -11 -12 -12 -12 -13 -13 -13 -13 -14 -14 -14 -14 -15 -15 -15 -15 -15 -15 -16 -16 -17 -18 -18 -19 -19 -20 -20 -21 -21 -22 -22 -22 -22 -22 -23 -23 -22 -22 -23 -23 -23
-11 -11 -12 -12 -12 -13 -13 -13 -14 -14 -14 -15 -15 -15 -15 -16 -16 -16 -16 -16 -17 -17 -18 -18 -19 -19 -20 -20 -21 -21 -22 -22 -22 -23 -23 -23 -23 -23 -23 -23 -23 -23 -24 -23

GFSNGP_700_temp_042.txt.gz
Temp
6 6 6 6 6 6 6 6 6 6 6 6 6 6 6 6 6 6 6 6 5 5 4 4 3 3 3 2 2 2 1 1 0 -0 -0 -1 -1 -2 -2 -3 -3 -2 -4 -4
6 6 6 6 6 6 6 6 5 5 5 5 6 6 6 6 6 6 6 5 5 5 4 4 3 3 3 2 2 2 1 0 0 -0 -1 -1 -2 -2 -3 -3 -3 -3 -4 -6
6 6 5 5 6 6 6 6 6 5 5 5 5 5 6 6 5 5 5 5 4 4 4 3 3 2 2 1 1 1 0 0 0 -1 -1 -2 -3 -3 -4 -3 -4 -5 -6 -7
5 5 -0 5 5 5 5 5 5 5 5 5 5 5 5 5 5 4 4 4 3 3 3 2 2 1 1 0 0 0 -0 -1 -2 -2 -3 -3 -3 -3 -3 -4 -6 -6 -7 -7
5 4 5 5 4 5 4 4 4 4 5 4 4 5 4 4 4 3 3 3 3 2 2 1 1 1 0 -0 -0 -1 -1 -2 -3 -4 -4 -4 -4 -4 -5 -6 -6 -7 -7 -9
4 3 -2 5 5 4 4 4 4 4 5 4 4 4 3 3 3 3 2 2 2 1 1 0 0 -0 -0 -1 -1 -1 -2 -3 -5 -5 -4 -5 -6 -6 -6 -7 -7 -8 -9 -9
4 4 4 4 4 4 3 4 4 4 4 3 3 3 3 2 2 2 2 2 1 1 0 -0 -1 -1 -1 -1 -2 -3 -4 -5 -6 -6 -7 -6 -6 -7 -7 -7 -8 -8 -9 -10
3 3 2 4 3 3 4 4 4 4 4 3 3 2 2 2 2 2 1 1 0 -0 -0 -1 -1 -2 -2 -3 -4 -5 -6 -6 -7 -7 -7 -7 -7 -8 -8 -8 -8 -9 -10 -10
4 4 4 4 4 3 3 3 3 3 3 3 2 2 1 1 1 1 0 -0 -0 -1 -1 -2 -2 -3 -4 -5 -6 -6 -7 -7 -6 -7 -7 -8 -8 -8 -9 -9 -9 -10 -10 -10
4 4 4 4 3 3 3 3 3 3 2 2 2 1 1 1 0 -0 -0 -1 -1 -1 -2 -3 -4 -5 -6 -7 -7 -6 -6 -7 -8 -8 -8 -8 -9 -9 -9 -10 -10 -10 -11 -11
4 4 4 4 4 3 3 3 2 2 2 1 1 1 0 0 -0 -1 -1 -1 -2 -2 -3 -4 -5 -6 -6 -6 -7 -7 -8 -8 -8 -9 -9 -9 -10 -10 -10 -11 -11 -11 -12 -12
5 5 5 4 4 3 3 2 2 2 1 1 1 0 0 -0 -1 -1 -2 -2 -3 -3 -4 -5 -5 -6 -7 -7 -8 -8 -8 -9 -9 -9 -10 -10 -10 -10 -11 -11 -11 -12 -12 -13
4 5 4 4 3 3 2 2 1 1 1 1 0 0 -0 -1 -1 -2 -3 -3 -4 -4 -5 -6 -6 -7 -8 -8 -8 -9 -9 -10 -10 -10 -10 -10 -11 -11 -10 -11 -11 -11 -12 -12
4 4 4 3 3 2 2 1 1 1 0 0 -0 -1 -1 -2 -3 -3 -4 -4 -5 -6 -7 -7 -8 -8 -9 -9 -10 -10 -10 -10 -11 -11 -11 -11 -11 -11 -12 -12 -12 -11 -12 -13
3 3 3 3 2 2 2 1 1 1 0 -0 -1 -2 -2 -3 -4 -4 -5 -6 -7 -7 -8 -8 -9 -9 -10 -10 -10 -11 -11 -11 -11 -11 -12 -12 -12 -12 -13 -13 -13 -14 -14 -14
2 2 2 2 2 2 1 1 1 0 -1 -1 -2 -3 -4 -4 -5 -6 -7 -8 -8 -9 -9 -9 -10 -10 -10 -11 -11 -11 -12 -12 -12 -12 -12 -12 -13 -13 -14 -14 -15 -15 -16 -16
0 -0 2 2 2 2 1 0 -1 -2 -3 -3 -3 -4 -4 -5 -7 -8 -9 -9 -10 -11 -10 -10 -11 -11 -11 -11 -12 -12 -12 -12 -12 -12 -13 -13 -14 -14 -15 -16 -16 -17 -18 -18
1 1 1 1 0 -0 -1 -2 -2 -2 -3 -4 -4 -5 -6 -8 -10 -10 -10 -11 -12 -11 -11 -11 -11 -12 -12 -12 -12 -12 -12 -13 -13 -13 -14 -14 -15 -16 -17 -17 -18 -18 -19 -19
-0 -0 0 -0 -2 -2 -3 -3 -4 -5 -5 -5 -6 -7 -10 -10 -10 -10 -12 -12 -11 -11 -12 -12 -12 -12 -13 -13 -13 -13 -13 -13 -14 -14 -15 -16 -17 -17 -18 -19 -19 -20 -20 -20
-2 -2 -3 -3 -3 -4 -4 -5 -6 -7 -6 -6 -8 -10 -10 -10 -11 -12 -12 -12 -12 -12 -13 -13 -13 -13 -13 -13 -13 -13 -14 -14 -15 -16 -16 -17 -18 -18 -19 -20 -20 -21 -21 -21
-3 -4 -4 -4 -5 -6 -7 -7 -7 -7 -7 -9 -10 -10 -11 -13 -12 -12 -12 -12 -13 -13 -13 -13 -14 -14 -13 -14 -14 -14 -15 -15 -16 -17 -17 -18 -19 -19 -20 -21 -21 -21 -22 -22
-5 -5 -6 -7 -7 -8 -8 -8 -9 -9 -10 -10 -10 -12 -13 -13 -12 -13 -13 -13 -13 -13 -14 -14 -14 -14 -14 -14 -15 -15 -16 -16 -17 -18 -18 -19 -20 -20 -21 -21 -22 -22 -22 -22
-6 -7 -8 -8 -9 -9 -9 -10 -10 -10 -10 -11 -13 -13 -13 -13 -13 -13 -13 -14 -14 -14 -14 -14 -14 -15 -15 -15 -15 -16 -17 -17 -18 -19 -19 -20 -20 -21 -22 -22 -22 -22 -22 -22
-9 -9 -9 -10 -10 -10 -10 -11 -11 -11 -12 -13 -13 -13 -13 -13 -13 -14 -14 -14 -14 -15 -15 -15 -15 -15 -15 -16 -16 -17 -18 -18 -19 -20 -20 -21 -21 -22 -22 -22 -23 -23 -23 -23
-10 -10 -10 -10 -11 -11 -11 -11 -11 -12 -13 -13 -13 -13 -14 -14 -14 -15 -15 -15 -15 -15 -15 -15 -15 -16 -16 -17 -17 -18 -19 -20 -20 -20 -21 -22 -22 -23 -23 -23 -23 -23 -23 -23
-10 -10 -11 -11 -11 -11 -11 -12 -12 -13 -13 -13 -14 -14 -14 -15 -15 -15 -16 -16 -16 -16 -16 -16 -16 -17 -17 -18 -19 -19 -20 -21 -21 -21 -22 -22 -23 -23 -23 -23 -23 -23 -23 -23
-11 -11 -11 -12 -12 -12 -13 -13 -14 -14 -14 -15 -15 -15 -16 -16 -16 -16 -16 -16 -16 -17 -17 -17 -17 -18 -18 -19 -20 -21 -21 -21 -21 -22 -22 -23 -23 -23 -24 -24 -24 -24 -24 -24

GFSNGP_700_temp_045.txt.gz
Temp
6 6 6 6 6 6 6 6 5 6 6 6 6 6 6 6 6 6 6 6 5 5 5 5 4 4 3 3 3 2 2 2 1 1 0 -0 -0 -0 -1 -2 -2 -3 -3 -4
5 5 5 6 6 6 6 6 5 5 6 6 6 5 5 6 6 6 6 6 5 5 5 5 4 4 3 3 3 2 2 2 1 1 0 -0 -0 -1 -3 -2 -4 -3 -4 -4
5 5 5 4 6 6 6 6 6 6 6 5 5 5 5 5 5 6 5 5 5 5 4 4 3 3 3 3 2 2 1 0 0 -0 -0 -1 -1 -3 -4 -4 -4 -4 -5 -6
5 4 2 6 6 6 5 5 5 5 5 5 4 4 5 5 5 5 5 5 4 4 3 3 3 3 2 2 1 0 0 -0 -0 -1 -1 -2 -3 -4 -5 -4 -4 -6 -6 -7
4 3 5 5 5 5 5 5 5 5 4 4 4 4 4 4 4 4 3 3 3 3 3 3 2 2 1 1 -0 -1 -1 -1 -2 -2 -2 -4 -6 -5 -5 -5 -6 -6 -7 -7
4 4 2 5 5 5 5 4 5 5 4 4 4 3 3 3 3 3 3 3 3 2 2 1 1 1 0 -0 -1 -1 -1 -2 -2 -3 -3 -5 -6 -6 -6 -6 -7 -7 -8 -8
4 4 5 5 5 4 4 5 4 4 4 4 4 4 3 3 3 3 2 2 2 1 1 1 0 -0 -1 -1 -1 -2 -3 -3 -3 -4 -5 -6 -6 -7 -7 -7 -8 -8 -8 -9
4 3 3 5 5 4 5 4 3 3 4 4 3 3 3 2 2 2 1 1 1 1 0 -0 -1 -1 -2 -2 -3 -3 -4 -4 -5 -5 -6 -7 -7 -7 -8 -8 -8 -8 -9 -9
5 5 5 5 5 5 4 4 3 3 3 3 3 3 2 2 1 1 1 1 0 -0 -0 -1 -1 -2 -2 -3 -4 -4 -5 -5 -6 -6 -7 -7 -7 -8 -8 -9 -9 -10 -10 -10
5 5 5 5 5 5 4 4 3 3 3 3 2 2 2 1 1 1 0 0 -0 -1 -1 -2 -2 -2 -3 -4 -5 -5 -6 -6 -7 -7 -8 -8 -8 -9 -9 -10 -10 -10 -11 -11
5 5 4 5 5 5 4 4 3 2 2 2 2 1 1 1 0 0 -0 -1 -1 -1 -2 -3 -3 -4 -5 -5 -6 -6 -7 -7 -8 -8 -8 -9 -9 -10 -10 -11 -11 -11 -11 -11
5 5 4 5 4 4 4 3 3 3 2 2 1 1 1 1 0 -0 -1 -1 -2 -2 -3 -3 -4 -5 -6 -6 -7 -8 -8 -8 -9 -9 -9 -9 -10 -10 -11 -11 -11 -12 -12 -12
3 4 3 4 4 4 3 3 3 2 2 1 1 1 1 0 -0 -0 -1 -2 -2 -3 -4 -5 -6 -6 -7 -8 -8 -8 -9 -9 -9 -9 -10 -10 -10 -11 -11 -11 -12 -12 -12 -13
3 3 3 3 4 3 3 2 2 2 1 1 1 1 0 -0 -0 -1 -2 -3 -3 -4 -5 -6 -7 -7 -8 -9 -9 -9 -9 -10 -10 -10 -11 -11 -11 -11 -11 -12 -12 -12 -13 -14
2 1 2 3 3 3 3 2 2 1 1 1 1 0 -0 -1 -1 -2 -2 -4 -4 -5 -7 -8 -8 -9 -9 -9 -10 -10 -10 -11 -11 -11 -11 -11 -12 -12 -12 -12 -13 -13 -14 -15
1 0 2 2 2 1 1 2 2 1 1 1 0 -1 -1 -2 -2 -3 -4 -4 -6 -7 -9 -9 -10 -10 -10 -10 -10 -11 -11 -11 -12 -12 -12 -12 -12 -12 -13 -13 -14 -15 -16 -16
1 1 1 1 -0 1 1 1 1 0 0 -0 -2 -2 -3 -4 -5 -5 -5 -6 -8 -10 -10 -10 -11 -11 -11 -11 -11 -12 -12 -12 -12 -12 -12 -13 -13 -13 -14 -15 -16 -16 -17 -18
0 -0 -1 -1 -1 -1 -1 -1 -1 -1 -2 -2 -3 -3 -5 -5 -6 -6 -8 -9 -10 -10 -10 -11 -11 -11 -11 -12 -12 -12 -12 -12 -13 -13 -13 -14 -14 -15 -15 -16 -17 -18 -19 -19
-2 -2 -2 -3 -2 -2 -2 -2 -2 -3 -3 -4 -5 -5 -6 -7 -8 -9 -11 -11 -11 -11 -12 -12 -12 -12 -12 -12 -12 -13 -13 -13 -13 -14 -14 -15 -15 -16 -17 -18 -19 -19 -20 -20
-3 -2 -2 -3 -2 -3 -3 -3 -4 -4 -5 -5 -6 -6 -7 -9 -10 -11 -11 -12 -12 -12 -12 -12 -12 -12 -13 -13 -13 -13 -13 -14 -14 -14 -15 -16 -16 -17 -18 -19 -19 -20 -20 -21
-3 -3 -3 -3 -4 -5 -5 -5 -5 -6 -6 -7 -8 -9 -10 -11 -11 -12 -13 -13 -12 -12 -13 -13 -13 -13 -13 -13 -14 -14 -14 -14 -15 -15 -16 -17 -18 -19 -19 -20 -20 -21 -21 -22
-5 -5 -5 -5 -6 -6 -7 -7 -7 -8 -9 -10 -10 -11 -11 -11 -13 -14 -13 -13 -13 -13 -13 -13 -13 -14 -14 -14 -15 -15 -15 -15 -16 -16 -17 -18 -19 -19 -20 -20 -21 -21 -22 -22
-6 -6 -7 -7 -8 -8 -9 -9 -9 -10 -11 -11 -11 -11 -12 -13 -13 -14 -13 -14 -14 -14 -14 -14 -14 -15 -15 -15 -15 -16 -16 -16 -17 -17 -18 -19 -19 -20 -20 -21 -21 -22 -22 -23
-8 -9 -9 -9 -10 -10 -10 -10 -10 -11 -11 -11 -11 -12 -13 -13 -14 -14 -14 -14 -14 -14 -15 -15 -16 -16 -16 -16 -16 -16 -17 -17 -18 -18 -19 -20 -20 -21 -21 -21 -22 -22 -23 -23
-10 -10 -10 -10 -10 -10 -11 -11 -12 -12 -12 -12 -12 -13 -13 -14 -14 -14 -15 -15 -15 -15 -16 -16 -16 -16 -17 -17 -17 -17 -18 -18 -19 -19 -20 -21 -21 -21 -22 -22 -23 -23 -23 -23
-10 -11 -11 -11 -11 -12 -12 -12 -12 -12 -13 -13 -14 -15 -15 -15 -15 -15 -16 -16 -16 -16 -17 -17 -17 -17 -18 -18 -18 -19 -19 -19 -20 -21 -21 -22 -22 -22 -22 -23 -23 -23 -23 -23
-11 -11 -12 -12 -12 -13 -13 -13 -14 -14 -14 -15 -15 -15 -16 -16 -16 -16 -17 -17 -17 -18 -18 -18 -18 -19 -19 -19 -19 -20 -20 -21 -21 -22 -22 -22 -22 -22 -23 -23 -24 -24 -24 -24

GFSNGP_700_temp_048.txt.gz
Temp
5 6 6 6 6 6 5 6 6 6 6 6 6 6 6 6 6 6 6 6 6 5 5 5 5 4 4 4 3 3 3 3 2 2 1 1 1 0 -0 -0 -1 -1 -2 -2
5 5 5 5 6 6 5 6 6 6 6 6 6 6 6 6 6 6 6 6 6 5 5 5 5 4 4 4 3 3 3 2 2 2 1 1 0 0 -0 -0 -1 -2 -3 -3
5 5 4 4 5 5 5 6 6 6 6 6 5 5 5 5 5 5 6 6 6 5 5 5 5 4 4 3 3 3 2 2 1 1 0 0 -0 -0 -1 -1 -2 -3 -4 -4
5 4 2 6 6 6 6 6 6 6 5 5 5 5 5 5 5 5 5 5 5 5 4 4 4 3 3 3 3 2 1 1 0 -0 -0 -1 -1 -1 -2 -2 -4 -5 -5 -6
3 3 5 5 6 6 6 6 6 5 5 4 5 5 4 4 4 4 5 4 4 3 3 3 3 3 3 2 2 1 0 -0 -1 -1 -1 -2 -2 -3 -3 -4 -5 -5 -6 -6
3 4 3 5 5 6 6 6 5 5 5 4 4 4 3 4 4 4 4 3 3 3 3 3 2 2 2 1 0 -0 -0 -1 -1 -1 -2 -2 -3 -4 -4 -5 -6 -6 -7 -7
2 3 5 5 5 5 5 6 5 5 4 4 4 4 3 4 3 3 3 2 2 2 2 2 2 1 0 -0 -0 -1 -1 -1 -2 -3 -3 -3 -4 -5 -5 -6 -7 -7 -8 -8
2 2 3 5 5 5 6 5 5 5 4 4 4 4 4 3 2 2 2 2 2 2 1 1 0 -0 -0 -1 -1 -1 -2 -2 -3 -3 -4 -5 -6 -6 -7 -7 -7 -8 -8 -9
4 4 5 5 6 5 5 5 5 4 4 3 4 4 4 3 2 2 2 1 1 1 1 0 -0 -1 -1 -1 -2 -2 -3 -3 -4 -5 -5 -6 -7 -7 -7 -8 -8 -9 -9 -10
3 4 5 5 5 5 5 5 4 4 4 4 3 3 3 2 2 2 1 1 1 0 0 -1 -1 -1 -2 -2 -2 -3 -3 -4 -5 -6 -6 -7 -7 -8 -8 -9 -9 -10 -10 -10
3 3 4 5 5 5 5 5 4 4 4 3 3 3 2 2 2 1 1 1 0 -0 -1 -1 -2 -2 -2 -2 -3 -4 -5 -6 -6 -7 -8 -8 -9 -9 -9 -10 -10 -10 -10 -11
3 4 4 4 4 4 4 4 4 3 3 3 3 2 2 1 1 1 1 0 -0 -1 -1 -2 -2 -2 -3 -4 -5 -6 -6 -7 -8 -8 -9 -9 -10 -10 -10 -10 -11 -11 -11 -11
2 3 3 3 4 4 4 4 4 3 3 2 2 2 1 1 1 0 0 0 -1 -1 -2 -2 -3 -4 -4 -5 -6 -7 -8 -8 -9 -9 -9 -10 -10 -10 -11 -11 -11 -11 -11 -12
2 2 3 3 3 3 3 2 3 3 3 2 2 1 1 1 1 0 -0 -1 -2 -2 -3 -3 -4 -5 -6 -7 -8 -8 -9 -9 -9 -10 -10 -10 -11 -11 -11 -11 -12 -12 -12 -12
1 2 2 2 3 2 2 2 1 2 2 2 2 1 1 0 -0 -0 -1 -2 -3 -4 -4 -5 -6 -7 -9 -9 -9 -10 -10 -10 -10 -11 -11 -11 -11 -11 -12 -12 -12 -12 -13 -13
1 1 2 2 2 2 1 2 2 2 2 2 1 1 1 0 -0 -1 -2 -3 -4 -6 -7 -8 -10 -11 -11 -10 -11 -10 -10 -11 -11 -11 -11 -12 -12 -12 -12 -12 -13 -13 -14 -15
1 1 2 1 1 2 1 1 1 0 1 -1 -1 -0 -0 -1 -2 -3 -4 -5 -6 -7 -10 -12 -11 -11 -11 -12 -11 -11 -11 -11 -12 -12 -12 -12 -12 -12 -13 -13 -13 -14 -15 -16
0 1 1 1 1 1 0 -0 -0 -1 -1 -2 -3 -3 -3 -3 -4 -5 -6 -7 -7 -8 -10 -11 -11 -12 -13 -12 -12 -12 -12 -12 -12 -12 -12 -12 -13 -13 -13 -14 -14 -15 -16 -17
-1 -1 -1 -1 -0 -0 -1 -1 -2 -2 -2 -3 -3 -4 -4 -5 -6 -7 -8 -8 -9 -11 -11 -12 -13 -13 -12 -12 -12 -12 -13 -13 -13 -13 -13 -13 -13 -14 -14 -15 -15 -16 -17 -18
-2 -2 -2 -2 -3 -3 -2 -3 -2 -3 -4 -5 -5 -5 -6 -7 -7 -8 -9 -10 -11 -11 -12 -13 -13 -13 -13 -13 -13 -13 -13 -13 -14 -14 -14 -14 -14 -15 -15 -16 -17 -18 -19 -19
-3 -3 -4 -3 -3 -3 -3 -4 -5 -6 -6 -6 -7 -7 -8 -9 -9 -10 -11 -11 -12 -12 -13 -14 -13 -13 -13 -13 -14 -14 -14 -14 -14 -15 -15 -15 -15 -16 -16 -17 -18 -19 -20 -20
-5 -5 -5 -5 -5 -5 -6 -6 -6 -7 -8 -9 -9 -9 -10 -11 -11 -11 -11 -12 -12 -13 -14 -14 -14 -14 -14 -14 -15 -15 -15 -15 -15 -15 -15 -16 -16 -17 -18 -19 -19 -20 -20 -21
-7 -7 -7 -7 -7 -7 -7 -8 -9 -9 -9 -9 -10 -11 -11 -11 -11 -11 -12 -13 -14 -14 -15 -15 -15 -15 -15 -15 -15 -15 -16 -16 -16 -16 -17 -17 -18 -18 -19 -20 -20 -21 -21 -22
-8 -9 -9 -9 -9 -10 -10 -10 -10 -10 -11 -11 -11 -12 -12 -12 -12 -13 -14 -14 -15 -15 -15 -15 -16 -16 -16 -16 -16 -17 -17 -17 -17 -18 -18 -18 -19 -19 -20 -21 -21 -21 -22 -22
-10 -10 -10 -11 -11 -11 -11 -11 -11 -12 -12 -12 -12 -13 -13 -14 -15 -15 -15 -16 -16 -16 -16 -16 -16 -16 -17 -17 -17 -18 -18 -19 -19 -19 -19 -20 -20 -21 -21 -22 -22 -22 -23 -23
-11 -11 -11 -11 -11 -12 -12 -12 -13 -13 -13 -14 -14 -14 -15 -15 -15 -16 -16 -16 -16 -17 -17 -17 -17 -18 -18 -18 -19 -19 -20 -20 -20 -20 -21 -21 -21 -22 -22 -22 -23 -23 -23 -24
-12 -12 -12 -12 -12 -13 -13 -14 -14 -14 -14 -15 -15 -15 -16 -16 -16 -17 -17 -17 -17 -18 -18 -18 -19 -19 -19 -20 -20 -21 -21 -21 -21 -21 -22 -22 -23 -23 -23 -23 -23 -24 -24 -24

GFSNGP_700_temp_054.txt.gz
Temp
6 7 7 7 7 7 7 8 6 6 7 8 8 8 6 7 7 7 7 6 6 5 5 6 6 6 6 6 6 5 5 4 4 3 3 3 3 3 2 2 1 1 1 0
5 6 6 7 7 8 7 8 8 8 8 8 8 7 7 7 7 7 6 6 6 5 4 5 6 6 6 6 5 4 4 4 4 3 3 3 2 2 2 2 1 1 0 -0
5 5 6 6 7 8 8 8 8 8 8 8 8 8 8 8 7 7 6 6 5 5 4 3 5 5 4 5 5 5 4 4 3 3 3 3 2 2 2 1 0 0 -0 -1
4 5 4 6 7 7 7 7 8 8 8 8 8 8 8 7 7 6 6 5 5 5 5 4 4 4 5 5 4 4 4 4 3 3 3 3 2 1 1 1 0 -0 -1 -2
4 4 5 6 6 6 6 7 7 7 7 8 7 7 7 7 7 6 6 6 5 5 5 5 5 5 5 4 4 4 3 3 3 3 2 2 1 0 0 -0 -1 -1 -2 -2
3 3 3 4 5 6 6 6 7 7 7 7 7 6 6 6 6 5 5 5 4 4 4 5 5 5 4 4 3 3 3 3 2 2 1 1 0 -0 -1 -1 -1 -2 -3 -3
0 2 4 4 5 6 5 6 6 7 7 7 6 6 5 5 5 5 4 4 4 4 4 4 4 3 3 3 2 2 2 2 1 1 0 -0 -0 -1 -1 -2 -2 -3 -4 -4
0 1 2 5 5 6 6 6 6 6 6 6 5 5 5 5 5 4 4 4 4 3 3 3 3 2 2 2 2 2 1 1 1 0 -0 -1 -1 -2 -2 -3 -4 -4 -5 -6
1 2 3 4 4 5 6 6 6 5 5 5 5 5 5 4 4 4 4 4 4 3 3 2 2 2 2 2 2 1 1 1 0 -1 -1 -1 -2 -3 -3 -4 -5 -6 -6 -7
2 2 2 3 3 4 4 5 5 5 5 5 5 4 4 4 4 4 4 3 3 3 2 2 2 2 2 2 1 1 0 -0 -1 -1 -2 -2 -3 -4 -5 -6 -6 -7 -8 -8
2 2 2 3 2 1 3 4 4 4 4 4 4 4 4 4 4 4 3 3 3 2 2 1 1 2 1 1 0 -0 -1 -1 -2 -2 -3 -4 -4 -6 -7 -7 -8 -8 -9 -9
2 2 2 2 2 2 2 2 3 3 3 3 3 4 4 3 3 3 3 3 3 2 1 1 1 1 1 0 -0 -1 -1 -1 -3 -4 -5 -6 -7 -8 -8 -9 -9 -9 -10 -10
1 1 1 2 3 2 2 2 2 2 3 3 3 4 3 3 3 3 3 3 2 2 2 1 1 1 0 0 -0 -1 -2 -3 -4 -5 -7 -10 -10 -10 -11 -10 -10 -10 -11 -11
1 1 1 1 2 3 2 2 2 2 2 2 1 3 3 3 2 2 2 2 2 1 1 1 1 1 0 -0 -1 -3 -4 -5 -5 -6 -9 -12 -11 -12 -13 -12 -11 -11 -11 -11
-0 -0 1 1 1 1 1 1 2 2 2 2 1 1 1 -0 1 2 2 2 1 1 0 0 0 -0 -1 -3 -3 -5 -5 -6 -8 -10 -10 -10 -12 -13 -12 -13 -13 -12 -12 -12
1 -1 -1 -0 0 0 1 1 1 1 1 1 0 1 1 1 1 1 1 1 1 0 0 0 -1 -3 -4 -5 -6 -6 -7 -9 -9 -10 -11 -11 -12 -13 -13 -14 -13 -12 -13 -13
-2 -2 -1 -1 -1 -0 0 0 1 1 0 0 0 0 1 1 0 -0 -0 -0 -0 -1 -2 -4 -5 -6 -6 -6 -9 -9 -9 -10 -11 -11 -12 -12 -13 -14 -14 -14 -13 -13 -13 -13
-2 -2 -1 -1 -1 -1 -1 -0 0 0 0 -1 -1 -1 -1 -2 -2 -3 -3 -3 -4 -5 -6 -7 -8 -9 -10 -10 -9 -9 -11 -11 -11 -12 -12 -13 -14 -14 -15 -14 -14 -14 -14 -15
-2 -2 -2 -1 -1 -1 -2 -1 -1 -2 -2 -2 -2 -2 -3 -4 -4 -5 -6 -7 -8 -8 -9 -9 -10 -10 -10 -10 -11 -11 -11 -12 -12 -12 -13 -14 -14 -15 -15 -15 -15 -15 -15 -16
-3 -3 -3 -3 -3 -3 -2 -2 -2 -3 -3 -3 -3 -4 -5 -6 -8 -8 -8 -9 -9 -10 -10 -10 -10 -11 -11 -12 -12 -12 -12 -13 -13 -14 -14 -15 -15 -15 -15 -15 -16 -16 -16 -17
-4 -4 -4 -4 -4 -4 -4 -4 -4 -5 -6 -6 -7 -8 -8 -9 -9 -10 -10 -11 -11 -11 -11 -12 -12 -12 -12 -12 -13 -13 -14 -14 -15 -15 -15 -15 -16 -16 -16 -17 -17 -17 -17 -18
-6 -6 -6 -6 -6 -6 -6 -7 -8 -8 -8 -9 -10 -10 -10 -11 -11 -11 -11 -12 -12 -12 -13 -13 -13 -13 -13 -13 -14 -14 -15 -15 -15 -16 -16 -16 -17 -17 -17 -18 -18 -18 -19 -19
-8 -8 -8 -8 -8 -9 -9 -9 -10 -10 -10 -11 -11 -11 -11 -12 -12 -12 -13 -13 -13 -13 -13 -13 -14 -14 -14 -15 -15 -15 -16 -16 -16 -17 -17 -18 -18 -19 -19 -19 -20 -20 -20 -21
-9 -9 -9 -10 -10 -10 -11 -11 -11 -11 -12 -12 -12 -13 -13 -13 -13 -13 -13 -14 -14 -14 -14 -14 -14 -15 -15 -16 -16 -16 -17 -17 -18 -18 -19 -19 -20 -20 -20 -21 -21 -21 -22 -22
-10 -10 -11 -11 -11 -11 -11 -12 -12 -12 -13 -13 -13 -14 -14 -14 -14 -14 -14 -14 -14 -14 -15 -15 -16 -16 -17 -17 -17 -18 -18 -19 -19 -20 -21 -21 -22 -22 -22 -23 -23 -23 -23 -24
-11 -12 -12 -12 -12 -12 -12 -13 -13 -13 -13 -14 -14 -14 -14 -14 -15 -15 -15 -15 -16 -16 -16 -17 -17 -17 -18 -18 -19 -19 -20 -21 -21 -22 -23 -23 -24 -24 -24 -24 -24 -25 -25 -25
-12 -13 -13 -13 -13 -13 -14 -14 -14 -14 -14 -14 -15 -15 -15 -15 -16 -16 -16 -16 -17 -17 -18 -18 -18 -19 -19 -19 -20 -21 -22 -23 -24 -24 -25 -25 -25 -26 -26 -26 -26 -26 -26 -26

GFSNGP_700_temp_057.txt.gz
Temp
6 6 6 6 7 7 7 7 6 7 6 7 7 8 8 8 7 7 7 7 7 6 6 7 6 6 6 5 5 5 4 4 4 4 4 3 3 3 3 2 2 2 1 1
5 5 5 5 6 6 7 7 7 7 7 7 8 8 8 7 7 7 7 7 6 6 6 5 6 6 6 6 5 4 4 4 4 4 4 4 3 3 2 2 2 2 1 1
4 4 4 5 5 6 6 7 7 7 7 8 8 8 8 7 7 7 7 6 6 6 6 5 5 5 6 5 5 5 5 4 4 4 4 3 3 2 2 2 2 2 1 0
4 4 3 4 5 6 6 6 7 7 7 7 8 8 7 8 7 7 7 6 6 6 6 5 5 4 5 5 5 5 4 4 4 3 3 3 3 2 2 2 1 1 1 0
3 4 4 4 5 6 6 6 7 7 7 7 7 7 8 7 7 7 7 6 6 6 6 5 5 4 5 4 4 4 4 4 4 3 3 3 3 2 2 1 1 1 0 -0
2 2 2 4 5 5 6 6 6 6 7 7 7 7 7 7 7 7 7 6 6 5 5 4 4 4 4 4 4 4 4 3 3 3 3 2 2 2 1 0 0 -0 -1 -1
-1 -1 2 3 4 5 5 5 6 6 6 7 7 7 7 7 6 6 6 6 5 4 4 4 4 4 4 4 4 4 3 3 3 2 2 2 1 1 -0 -0 -1 -1 -1 -2
-2 -2 -0 3 4 4 4 5 6 5 6 6 6 6 6 6 5 6 5 5 4 4 4 4 4 3 3 3 3 3 3 2 2 2 1 1 0 -0 -0 -1 -1 -2 -3 -3
1 1 1 2 3 3 3 4 4 5 5 5 5 5 5 5 5 5 5 5 4 4 3 3 3 3 3 3 3 2 2 2 1 1 1 0 -0 -0 -1 -2 -3 -4 -4 -5
1 1 0 2 2 2 2 3 4 3 4 5 5 4 3 5 4 4 4 4 4 3 3 3 3 2 2 2 2 1 1 1 1 0 -0 -0 -1 -1 -2 -3 -4 -5 -6 -7
2 2 0 -1 1 2 1 1 3 3 2 3 3 3 3 4 4 4 4 4 4 3 3 2 2 2 1 1 1 1 1 0 0 -0 -0 -1 -2 -3 -4 -4 -6 -7 -8 -9
2 2 2 -0 1 1 1 1 1 2 2 2 2 3 3 3 3 3 3 3 3 3 2 2 1 1 1 0 0 0 0 -0 -1 -1 -2 -3 -4 -5 -6 -7 -10 -11 -11 -11
1 1 1 2 1 2 2 1 0 1 2 3 3 2 3 3 3 1 1 1 2 2 2 1 1 1 0 0 -0 -1 -1 -2 -3 -3 -4 -5 -6 -7 -10 -12 -13 -12 -11 -13
1 1 1 2 2 1 1 1 2 1 1 2 2 2 2 2 2 2 0 1 1 1 1 1 0 -1 -1 -1 -2 -2 -2 -3 -5 -5 -6 -7 -9 -11 -13 -12 -11 -11 -12 -12
-0 -0 1 1 1 1 1 1 1 1 1 2 2 1 1 1 1 1 0 -1 -1 -0 1 0 -1 -2 -3 -3 -3 -4 -5 -6 -7 -8 -8 -10 -11 -10 -10 -11 -12 -12 -12 -12
-1 -0 -0 0 0 0 0 0 0 0 1 1 1 1 1 1 1 -1 -1 -0 -1 -1 -1 -2 -3 -3 -4 -5 -5 -7 -7 -7 -8 -10 -10 -10 -10 -11 -11 -12 -12 -12 -13 -13
-1 -1 -1 -1 -2 -1 -1 -1 -1 -0 -0 -0 -0 -0 -1 -1 -0 -0 -1 -2 -3 -3 -4 -4 -5 -6 -7 -7 -8 -8 -9 -10 -10 -10 -10 -11 -12 -12 -12 -12 -13 -13 -14 -14
-3 -3 -2 -2 -2 -2 -2 -2 -2 -2 -1 -1 -2 -2 -2 -2 -2 -2 -3 -3 -4 -5 -5 -6 -7 -8 -9 -9 -9 -10 -10 -10 -11 -11 -12 -12 -12 -12 -13 -13 -14 -14 -15 -15
-3 -3 -3 -3 -3 -2 -2 -2 -2 -2 -3 -2 -2 -3 -3 -4 -5 -5 -5 -6 -6 -7 -8 -9 -9 -10 -10 -11 -11 -11 -12 -12 -12 -12 -12 -13 -13 -14 -14 -15 -15 -15 -16 -16
-4 -4 -3 -3 -3 -3 -3 -3 -3 -4 -4 -4 -4 -4 -5 -6 -7 -7 -8 -9 -9 -10 -10 -11 -12 -12 -12 -12 -12 -13 -13 -12 -12 -13 -13 -14 -14 -15 -15 -15 -16 -16 -16 -17
-6 -5 -5 -5 -5 -5 -5 -5 -5 -6 -6 -7 -7 -8 -9 -9 -9 -10 -10 -10 -11 -12 -12 -12 -12 -13 -13 -13 -13 -13 -13 -13 -14 -14 -14 -15 -15 -16 -16 -17 -17 -17 -18 -18
-8 -8 -7 -8 -7 -7 -8 -8 -8 -9 -9 -9 -9 -10 -10 -10 -11 -11 -11 -12 -12 -13 -13 -13 -13 -13 -13 -13 -14 -14 -14 -14 -15 -15 -16 -16 -17 -17 -18 -18 -18 -19 -20 -20
-9 -9 -9 -9 -9 -9 -9 -9 -10 -10 -10 -10 -11 -11 -11 -12 -12 -12 -13 -13 -13 -13 -14 -14 -14 -14 -14 -14 -14 -15 -15 -16 -16 -17 -17 -18 -18 -19 -19 -20 -20 -21 -21 -22
-10 -10 -10 -10 -11 -11 -11 -11 -11 -11 -11 -12 -12 -12 -13 -13 -13 -13 -13 -14 -14 -14 -14 -14 -15 -15 -15 -16 -16 -16 -17 -17 -17 -18 -19 -19 -20 -21 -21 -22 -22 -23 -23 -24
-11 -11 -11 -11 -12 -12 -12 -12 -12 -13 -13 -13 -13 -13 -14 -14 -14 -14 -14 -14 -15 -15 -15 -16 -16 -16 -17 -17 -17 -17 -18 -18 -19 -19 -20 -21 -22 -23 -24 -24 -25 -25 -25 -25
-12 -13 -13 -13 -13 -13 -13 -13 -14 -14 -14 -14 -14 -14 -15 -15 -15 -15 -15 -16 -16 -16 -16 -16 -16 -17 -17 -18 -18 -19 -19 -20 -20 -21 -22 -23 -24 -25 -26 -26 -26 -26 -26 -26
-13 -14 -14 -14 -14 -14 -14 -14 -14 -14 -15 -15 -15 -15 -15 -16 -16 -16 -16 -16 -17 -17 -17 -18 -18 -19 -19 -19 -19 -20 -20 -21 -22 -23 -24 -25 -26 -26 -27 -27 -27 -27 -27 -27

GFSNGP_700_temp_063.txt.gz
Temp
-1 0 2 3 4 5 6 6 5 5 6 7 7 7 7 7 7 7 7 7 7 7 7 7 7 7 6 6 6 6 6 5 5 4 3 3 3 3 2 2 2 1 2 2
-1 -0 1 1 3 4 5 5 5 5 5 6 7 7 7 7 7 7 7 7 7 7 7 7 7 7 6 6 6 6 5 5 5 4 4 3 3 3 3 3 2 2 2 2
-1 -0 -3 2 3 3 4 4 5 5 5 6 6 7 6 7 7 7 7 7 7 7 7 7 7 6 6 6 6 5 5 5 4 4 4 3 3 3 3 2 2 2 2 2
-2 -2 -2 1 2 2 3 4 5 5 5 5 5 6 6 7 7 7 7 7 7 7 7 7 7 6 6 6 6 5 5 4 3 3 3 3 3 3 2 2 2 2 2 1
-2 -2 -1 2 1 2 2 4 4 5 5 5 6 6 6 7 7 7 7 7 7 7 7 7 7 6 6 6 5 5 4 4 3 3 2 2 2 2 2 2 2 1 1 1
-4 -3 -3 1 2 2 1 1 3 4 5 5 4 5 6 6 6 7 7 7 7 7 7 7 6 6 6 5 5 4 3 3 3 2 2 2 2 2 2 2 1 1 1 1
-3 -2 -1 0 2 2 0 1 3 4 4 4 5 5 5 5 6 6 6 7 7 7 7 6 6 6 5 5 4 3 3 2 2 2 2 1 1 2 2 1 1 1 1 0
-3 -3 -2 -0 0 0 -1 -1 2 3 4 4 4 5 5 5 6 6 6 7 6 6 6 6 5 5 5 5 4 3 2 2 2 2 2 1 1 1 1 1 0 0 -0 -1
-1 -1 0 -0 -0 0 -2 -1 -1 0 3 4 4 4 5 5 6 6 5 6 5 5 5 5 5 5 5 4 3 2 2 2 2 2 1 1 0 1 0 0 -0 -1 -2 -2
-2 -1 -0 -0 0 0 0 0 -1 -1 1 2 3 4 4 5 5 5 4 4 4 4 4 4 4 4 4 3 2 2 2 1 1 1 1 1 1 0 -0 -1 -1 -2 -3 -3
-2 -1 -1 -0 -0 0 0 1 -0 -1 -0 -0 2 3 4 4 4 3 3 3 3 3 3 3 4 3 3 3 2 2 2 1 1 0 -0 -1 -1 -1 -1 -2 -3 -3 -4 -5
-2 -2 -1 -1 -0 -0 0 1 0 0 0 1 0 1 1 3 3 3 2 2 1 2 2 3 3 2 2 2 2 2 1 0 -0 -1 -2 -2 -2 -3 -3 -3 -4 -5 -6 -6
-3 -2 -2 -1 -1 -0 0 1 0 0 0 0 1 1 -0 1 0 2 1 1 1 1 2 1 2 2 1 1 0 0 -0 -1 -2 -2 -3 -3 -3 -4 -5 -5 -5 -6 -6 -7
-3 -3 -2 -2 -2 -1 -0 0 0 0 0 0 0 -0 -0 -1 -0 -1 -0 -1 -0 1 0 0 0 0 -0 -0 -1 -2 -2 -2 -3 -4 -4 -4 -4 -5 -6 -6 -6 -7 -8 -9
-3 -4 -3 -2 -2 -1 -1 -0 -0 -1 -1 -1 -0 -0 -0 0 -0 -1 -1 -0 0 0 0 -0 -0 -0 -1 -2 -2 -2 -2 -3 -4 -5 -5 -6 -6 -7 -7 -8 -9 -10 -10 -11
-4 -4 -3 -3 -3 -2 -2 -1 -1 -1 -1 -1 -1 -0 -0 -1 -1 -1 -1 -0 -0 -1 -1 -1 -2 -2 -2 -2 -3 -4 -4 -5 -6 -7 -7 -8 -8 -9 -10 -10 -11 -11 -12 -12
-4 -4 -4 -3 -3 -3 -2 -2 -2 -2 -2 -2 -2 -2 -2 -1 -1 -1 -1 -2 -2 -2 -2 -2 -2 -3 -3 -4 -5 -5 -6 -7 -8 -8 -9 -10 -10 -11 -11 -12 -12 -13 -13 -13
-5 -5 -4 -4 -3 -3 -3 -3 -3 -3 -3 -3 -3 -3 -3 -3 -3 -3 -3 -2 -2 -3 -3 -4 -4 -5 -6 -7 -8 -8 -9 -9 -9 -9 -10 -11 -12 -12 -13 -13 -13 -13 -14 -14
-6 -5 -4 -4 -4 -3 -3 -3 -3 -3 -4 -4 -4 -4 -4 -4 -4 -4 -5 -4 -4 -5 -5 -6 -8 -8 -9 -9 -9 -9 -9 -10 -11 -12 -12 -12 -13 -13 -13 -14 -14 -14 -14 -15
-6 -6 -5 -5 -5 -5 -4 -5 -5 -5 -6 -6 -5 -5 -5 -5 -6 -6 -7 -8 -8 -9 -9 -9 -9 -10 -10 -10 -11 -11 -12 -12 -13 -13 -13 -14 -14 -14 -14 -15 -15 -15 -15 -16
-7 -7 -8 -8 -7 -7 -7 -7 -7 -8 -8 -8 -9 -9 -9 -9 -9 -9 -10 -10 -10 -10 -10 -11 -12 -12 -12 -13 -13 -13 -13 -14 -14 -14 -14 -14 -14 -15 -15 -15 -16 -16 -16 -17
-9 -9 -9 -9 -9 -9 -9 -9 -10 -9 -9 -10 -10 -10 -11 -11 -11 -11 -11 -11 -12 -12 -12 -13 -13 -13 -13 -14 -14 -14 -14 -14 -14 -15 -15 -15 -15 -16 -16 -16 -17 -17 -18 -19
-11 -11 -11 -11 -11 -11 -11 -11 -11 -11 -12 -11 -12 -12 -12 -12 -12 -12 -13 -13 -13 -13 -13 -14 -14 -14 -14 -14 -14 -15 -15 -15 -15 -15 -16 -16 -16 -17 -17 -18 -18 -19 -19 -20
-12 -12 -12 -12 -12 -12 -12 -12 -12 -12 -12 -12 -13 -13 -13 -13 -14 -14 -14 -14 -14 -15 -15 -15 -15 -15 -15 -15 -15 -15 -16 -16 -16 -17 -17 -18 -18 -18 -19 -19 -20 -20 -21 -22
-13 -13 -13 -13 -13 -13 -13 -13 -13 -13 -13 -13 -14 -14 -14 -14 -14 -15 -15 -15 -15 -15 -15 -15 -15 -16 -16 -16 -16 -17 -17 -18 -18 -18 -18 -19 -19 -20 -20 -21 -22 -22 -23 -24
-13 -14 -14 -14 -14 -14 -14 -14 -14 -14 -14 -15 -15 -15 -15 -15 -16 -16 -16 -16 -16 -16 -16 -16 -17 -17 -17 -18 -18 -18 -19 -19 -19 -19 -20 -20 -21 -21 -22 -23 -23 -24 -24 -25
-15 -15 -15 -15 -15 -15 -15 -15 -15 -15 -16 -16 -16 -16 -16 -16 -17 -17 -17 -17 -17 -17 -18 -18 -18 -19 -19 -19 -19 -19 -20 -20 -20 -21 -21 -22 -22 -23 -24 -24 -24 -25 -25 -25

GFSNGP_700_temp_069.txt.gz
Temp
-1 -1 -1 -0 0 1 1 1 0 1 2 3 3 4 5 5 6 6 7 7 7 7 7 7 7 7 7 7 6 6 6 6 6 6 6 5 4 4 3 2 2 2 1 -0
-2 -1 -0 0 1 1 1 1 2 1 1 2 3 4 4 5 5 6 6 6 6 6 7 7 7 7 7 7 6 6 6 6 6 6 6 5 5 5 4 4 3 2 2 1
-3 -2 -1 -1 1 2 2 2 3 2 2 2 2 4 4 5 5 6 6 6 7 7 7 7 7 7 7 7 6 6 6 6 6 5 5 5 4 4 4 3 3 3 2 2
-3 -3 -2 -0 1 2 1 2 2 2 2 2 3 3 4 5 5 5 5 6 6 6 6 7 7 7 7 7 7 6 6 6 6 5 5 4 4 4 4 3 3 3 2 2
-4 -4 -2 -1 1 1 1 1 1 1 2 1 2 2 3 3 4 5 5 5 5 6 7 7 6 6 7 7 7 6 6 6 6 5 5 4 4 4 3 3 2 2 2 2
-4 -4 -3 -1 -0 0 0 0 -0 -1 -0 0 1 2 2 4 4 4 5 5 5 6 6 6 7 7 7 7 7 7 6 6 6 5 4 4 4 3 3 3 2 2 2 2
-5 -4 -3 -2 -1 -1 -1 -1 -1 -0 -1 -1 -0 -0 0 3 4 4 4 5 5 5 6 6 7 7 7 7 7 6 6 6 5 5 4 4 3 3 3 2 2 2 2 1
-5 -5 -4 -1 -2 -1 -1 -1 -1 -1 -1 -1 -1 -1 -1 1 3 3 4 4 5 5 5 6 6 6 7 7 6 6 6 6 5 4 3 3 3 2 2 2 2 1 1 1
-3 -3 -2 -2 -2 -2 -1 -1 -0 -1 -1 -1 -1 -1 -1 -0 2 3 3 3 4 5 5 4 5 5 6 6 6 6 6 5 4 4 3 3 2 2 2 1 1 1 1 1
-4 -4 -3 -2 -3 -3 -2 -2 -1 -1 -1 -1 -1 -2 -1 -1 1 1 2 3 4 4 4 4 4 5 5 5 5 5 4 4 3 3 3 2 1 1 1 0 -0 -2 -1 -1
-4 -4 -4 -3 -4 -3 -3 -2 -2 -2 -1 -1 -1 -1 -3 -2 -0 -1 -0 0 2 3 3 4 4 3 3 4 3 3 3 3 3 2 2 1 1 1 -1 -2 -2 -1 -1 -2
-5 -4 -4 -4 -4 -4 -3 -3 -2 -2 -2 -1 -1 -1 -2 -2 -3 -2 -1 -0 0 1 2 1 1 2 2 2 2 1 1 1 1 1 1 1 -0 -1 -1 -2 -3 -3 -3 -4
-5 -5 -4 -4 -4 -4 -4 -3 -3 -3 -3 -2 -2 -2 -2 -3 -3 -2 -1 -1 -1 -0 -1 -1 -1 -1 -0 -0 -1 -1 -1 -1 -0 -2 -1 -2 -2 -2 -3 -3 -3 -4 -4 -5
-4 -4 -4 -4 -4 -4 -4 -4 -4 -3 -4 -3 -2 -3 -3 -3 -2 -2 -1 -1 -1 -1 -1 -1 -1 -2 -1 -1 -1 -2 -2 -2 -2 -2 -3 -3 -3 -3 -4 -5 -5 -5 -6 -7
-5 -5 -5 -5 -4 -4 -4 -4 -4 -4 -4 -4 -3 -3 -3 -3 -2 -1 -1 -1 -1 -2 -2 -2 -2 -2 -3 -3 -3 -3 -2 -3 -3 -3 -4 -4 -4 -4 -5 -6 -6 -7 -8 -9
-5 -5 -5 -6 -5 -5 -6 -5 -5 -5 -4 -4 -4 -4 -4 -3 -2 -2 -2 -2 -2 -2 -2 -3 -3 -3 -3 -3 -3 -3 -3 -3 -4 -4 -5 -5 -6 -6 -7 -8 -8 -9 -9 -10
-5 -5 -6 -6 -6 -6 -6 -6 -5 -5 -5 -4 -4 -4 -4 -3 -3 -3 -3 -3 -3 -3 -3 -3 -3 -3 -4 -4 -4 -4 -5 -6 -6 -7 -7 -8 -8 -9 -9 -9 -10 -10 -10 -11
-6 -6 -6 -6 -6 -6 -6 -6 -6 -5 -5 -5 -5 -5 -5 -5 -5 -5 -5 -5 -5 -4 -4 -5 -5 -6 -6 -7 -7 -8 -8 -8 -8 -9 -9 -9 -10 -10 -10 -11 -11 -12 -12 -13
-7 -7 -6 -7 -7 -7 -7 -7 -7 -6 -6 -7 -7 -7 -7 -7 -7 -7 -7 -7 -7 -8 -8 -8 -8 -8 -9 -9 -9 -10 -10 -10 -10 -10 -11 -11 -12 -12 -13 -13 -13 -14 -14 -14
-8 -8 -8 -8 -8 -9 -8 -8 -8 -9 -8 -8 -9 -9 -9 -9 -9 -10 -10 -11 -10 -10 -10 -10 -11 -11 -11 -11 -11 -11 -11 -12 -12 -12 -13 -13 -13 -14 -14 -14 -14 -14 -15 -15
-9 -10 -10 -10 -10 -10 -10 -11 -11 -11 -11 -11 -11 -11 -11 -12 -12 -12 -12 -12 -12 -12 -13 -13 -13 -13 -13 -13 -13 -13 -13 -13 -13 -13 -14 -14 -14 -14 -14 -15 -15 -15 -16 -16
-12 -12 -12 -12 -12 -12 -12 -12 -12 -12 -12 -13 -12 -12 -13 -13 -13 -13 -13 -13 -13 -13 -13 -13 -14 -14 -14 -14 -14 -14 -14 -14 -14 -14 -14 -15 -15 -15 -16 -16 -16 -17 -17 -17
-13 -13 -13 -13 -13 -13 -13 -13 -13 -13 -13 -13 -13 -13 -14 -13 -14 -14 -14 -14 -14 -14 -14 -14 -14 -14 -15 -15 -15 -15 -15 -15 -15 -16 -16 -16 -17 -17 -17 -18 -18 -18 -18 -19
-13 -13 -14 -13 -14 -14 -14 -14 -14 -14 -14 -14 -14 -14 -14 -14 -15 -14 -14 -14 -15 -15 -15 -15 -15 -15 -15 -16 -16 -16 -16 -17 -17 -17 -18 -18 -18 -18 -19 -19 -19 -19 -20 -20
-14 -14 -14 -14 -15 -15 -15 -15 -15 -15 -15 -15 -15 -15 -15 -15 -15 -15 -15 -16 -16 -16 -16 -16 -17 -17 -17 -17 -18 -18 -18 -18 -19 -19 -19 -19 -19 -19 -20 -20 -20 -21 -21 -22
-15 -15 -15 -15 -15 -15 -15 -15 -15 -16 -16 -16 -16 -16 -16 -16 -16 -16 -17 -17 -17 -18 -18 -18 -18 -18 -18 -19 -19 -19 -19 -19 -20 -20 -20 -20 -20 -20 -21 -21 -21 -22 -22 -23
-16 -16 -16 -16 -16 -16 -16 -16 -17 -17 -17 -17 -17 -17 -17 -17 -17 -18 -18 -18 -18 -18 -19 -19 -19 -19 -19 -19 -20 -20 -20 -20 -20 -21 -21 -21 -21 -21 -21 -22 -22 -23 -23 -24

GFSNGP_700_temp_072.txt.gz
Temp
-1 -1 -1 -0 0 1 1 1 2 3 3 3 4 4 4 5 5 5 6 6 6 7 7 7 7 7 7 7 7 7 7 7 6 6 6 6 5 5 4 4 3 3 2 2
-1 -1 -1 -0 0 0 1 1 2 2 3 3 3 3 3 4 4 5 5 6 6 6 6 6 6 7 7 7 7 7 7 6 6 6 6 6 6 5 5 4 4 3 2 2
-1 -2 -1 -1 1 1 2 2 2 3 3 2 1 2 3 3 4 4 5 6 6 6 6 6 7 7 7 7 7 7 7 6 6 6 6 6 5 5 5 4 4 4 3 2
-2 -2 -1 1 1 1 1 1 2 1 1 -0 0 3 3 3 4 4 5 5 6 6 6 6 6 7 7 7 7 7 6 6 6 6 6 6 5 5 5 4 4 4 3 3
-3 -1 -0 -1 0 0 1 1 0 -0 -0 -1 -1 0 1 2 2 2 3 5 5 5 6 6 6 6 6 7 6 7 7 7 6 6 6 5 5 5 4 4 4 4 3 3
-4 -2 -1 -0 -1 -0 0 1 -1 -1 -2 -2 -2 -1 0 1 1 2 2 3 4 5 5 5 5 6 6 6 6 6 7 6 6 6 6 5 5 5 4 4 4 3 3 3
-4 -3 -1 -1 -1 -0 -0 -1 -1 -2 -2 -2 -2 -2 -1 0 0 0 1 2 3 4 5 5 5 6 6 6 6 6 7 7 6 6 6 6 5 4 4 4 3 3 2 2
-5 -4 -3 -2 -2 -2 -2 -2 -2 -1 -1 -1 -1 -1 -1 -1 0 0 0 1 2 3 4 5 5 5 6 6 6 7 7 7 6 6 6 5 5 4 3 3 2 2 2 2
-3 -2 -3 -2 -3 -3 -2 -2 -2 -1 -1 -1 -1 -1 -1 -1 -1 0 0 -0 1 2 4 4 5 5 5 5 5 6 6 6 6 6 6 5 4 3 3 2 2 2 1 1
-4 -3 -3 -3 -3 -2 -2 -2 -2 -2 -2 -2 -2 -2 -1 -1 -1 -1 -1 -1 -0 1 3 4 4 5 5 5 5 5 5 5 5 4 5 3 3 3 3 2 2 2 1 1
-4 -4 -4 -4 -4 -3 -3 -3 -3 -3 -3 -2 -2 -2 -2 -1 -1 -1 -1 -1 -2 -1 1 2 2 3 4 4 4 4 4 4 4 4 4 3 3 2 1 1 1 1 1 0
-4 -4 -4 -4 -4 -4 -4 -4 -3 -3 -3 -3 -3 -2 -2 -2 -2 -2 -3 -3 -2 -3 -2 -2 -0 0 1 2 2 2 2 2 2 2 2 1 1 1 1 1 0 -1 -2 -2
-5 -5 -5 -5 -4 -4 -4 -4 -4 -4 -3 -3 -3 -3 -3 -3 -3 -3 -3 -4 -3 -2 -3 -3 -3 -1 -1 -1 -1 -1 0 0 -0 -0 -1 -1 -1 -2 -1 -1 -2 -3 -3 -3
-5 -5 -5 -5 -4 -4 -4 -4 -4 -4 -4 -3 -3 -3 -3 -4 -3 -3 -3 -3 -3 -3 -3 -2 -2 -2 -3 -3 -2 -2 -1 -1 -1 -1 -2 -2 -3 -3 -3 -4 -4 -4 -4 -4
-5 -5 -5 -5 -5 -5 -5 -5 -5 -4 -4 -4 -4 -4 -5 -4 -4 -4 -3 -3 -3 -3 -3 -3 -3 -3 -3 -3 -3 -3 -3 -3 -3 -3 -3 -3 -3 -3 -4 -4 -5 -5 -6 -6
-6 -5 -5 -5 -5 -5 -6 -7 -6 -6 -6 -5 -5 -5 -5 -4 -4 -4 -4 -4 -4 -3 -3 -3 -3 -3 -3 -3 -3 -3 -4 -4 -4 -5 -5 -5 -5 -5 -6 -6 -7 -8 -8 -9
-6 -6 -5 -5 -6 -7 -6 -7 -7 -7 -6 -6 -6 -5 -5 -5 -5 -4 -5 -5 -5 -4 -5 -5 -5 -5 -5 -5 -5 -5 -5 -5 -6 -6 -7 -7 -7 -8 -8 -9 -9 -9 -10 -10
-7 -7 -6 -6 -6 -7 -7 -7 -7 -7 -7 -7 -7 -7 -7 -7 -7 -7 -7 -7 -6 -7 -7 -7 -7 -7 -7 -8 -8 -8 -8 -8 -9 -9 -9 -9 -10 -10 -10 -10 -11 -11 -11 -12
-8 -8 -8 -7 -7 -7 -7 -8 -8 -8 -8 -8 -8 -8 -9 -9 -8 -8 -8 -9 -9 -9 -9 -9 -10 -10 -10 -10 -10 -10 -10 -11 -11 -10 -11 -11 -11 -11 -12 -12 -12 -12 -13 -13
-9 -8 -8 -8 -8 -8 -9 -9 -9 -9 -9 -10 -11 -11 -11 -11 -11 -11 -11 -11 -11 -11 -11 -11 -11 -12 -12 -12 -12 -12 -12 -12 -12 -12 -12 -13 -13 -13 -13 -13 -13 -14 -14 -14
-10 -10 -10 -10 -10 -10 -11 -11 -11 -12 -12 -12 -12 -12 -12 -12 -12 -12 -12 -12 -12 -12 -12 -13 -12 -13 -13 -13 -13 -13 -13 -13 -13 -13 -13 -13 -13 -13 -14 -14 -14 -15 -15 -15
-12 -12 -12 -12 -12 -12 -12 -12 -13 -13 -13 -13 -13 -13 -13 -13 -13 -13 -14 -13 -13 -13 -13 -13 -13 -13 -13 -13 -13 -13 -13 -14 -14 -14 -14 -14 -15 -15 -15 -16 -16 -17 -17 -17
-13 -13 -13 -13 -13 -13 -13 -14 -14 -14 -14 -14 -14 -14 -14 -14 -14 -14 -14 -14 -14 -14 -14 -14 -14 -14 -14 -14 -15 -15 -15 -15 -15 -16 -16 -16 -17 -17 -17 -18 -18 -18 -18 -18
-14 -14 -14 -14 -14 -15 -15 -14 -14 -15 -15 -15 -15 -15 -15 -15 -15 -15 -15 -15 -15 -15 -15 -15 -15 -15 -16 -16 -16 -16 -16 -17 -17 -17 -17 -18 -18 -18 -19 -19 -19 -19 -19 -19
-15 -15 -15 -15 -15 -15 -15 -15 -16 -16 -15 -16 -15 -16 -16 -16 -16 -16 -16 -16 -16 -16 -17 -17 -17 -17 -17 -17 -17 -18 -18 -18 -18 -19 -19 -19 -19 -19 -20 -20 -20 -20 -20 -21
-16 -16 -16 -16 -16 -16 -16 -16 -16 -16 -16 -16 -16 -16 -16 -16 -16 -17 -17 -17 -17 -18 -18 -18 -18 -18 -18 -18 -18 -19 -19 -19 -19 -19 -20 -20 -20 -20 -20 -21 -21 -21 -21 -22
-16 -16 -16 -16 -16 -17 -17 -17 -17 -17 -17 -17 -17 -17 -18 -18 -18 -18 -18 -18 -19 -19 -19 -19 -19 -19 -19 -19 -19 -20 -20 -20 -20 -20 -21 -21 -21 -21 -22 -22 -22 -22 -22 -23

GFSNGP_700_temp_075.txt.gz
Temp
0 -0 1 2 3 3 3 4 4 4 4 5 5 5 5 5 4 5 6 6 5 6 6 6 6 7 7 7 7 7 7 7 7 7 6 6 6 5 5 5 5 4 4 3
-1 0 0 1 1 2 2 3 3 4 4 5 5 4 4 4 3 3 4 4 4 5 5 5 5 6 6 7 7 7 7 7 7 7 7 6 6 6 6 5 5 4 4 4
-0 0 0 0 1 1 2 2 3 3 4 3 3 3 2 2 2 3 4 4 5 5 6 5 4 6 6 6 6 7 7 7 7 7 7 7 6 6 6 6 5 5 4 4
-1 -1 0 2 2 2 2 3 3 3 3 2 2 1 2 2 1 2 3 3 4 5 5 5 6 6 6 6 6 7 7 7 7 7 6 6 6 6 6 6 5 5 5 4
-2 0 1 1 1 1 2 2 2 2 1 1 1 0 2 2 0 1 1 1 3 4 5 5 5 5 6 6 6 6 6 7 7 7 6 6 6 6 6 6 6 5 5 5
-2 -1 0 1 0 -0 1 2 0 0 -0 -0 -0 1 2 0 -0 1 -1 0 1 2 3 5 5 5 5 5 6 6 6 6 6 6 6 6 6 6 6 5 5 5 5 4
-3 -2 -0 1 0 -1 1 -0 -2 -2 -1 -2 -2 -1 -1 -1 -1 -1 -1 -0 1 1 1 2 3 5 5 5 5 6 5 6 6 6 6 5 4 4 5 5 5 4 4 4
-4 -4 -2 -1 -1 -1 -1 -3 -3 -3 -3 -2 -1 -2 -2 -2 -2 -2 -0 0 1 1 1 2 2 3 4 4 5 5 5 6 6 6 6 5 5 5 6 5 5 4 4 3
-3 -2 -2 -2 -2 -3 -3 -3 -3 -2 -1 -2 -2 -2 -1 -2 -3 -1 -1 -0 -0 -0 -0 0 1 2 3 4 4 5 5 5 5 5 6 6 5 5 5 4 4 4 3 2
-3 -2 -2 -3 -2 -3 -2 -2 -2 -2 -2 -2 -2 -2 -2 -2 -2 -2 -1 -1 -1 -1 -1 -1 -0 1 2 3 3 4 4 5 5 4 4 4 4 4 4 3 2 1 1 1
-2 -2 -2 -2 -3 -4 -3 -3 -2 -2 -3 -3 -3 -3 -3 -3 -2 -2 -2 -2 -1 -1 -1 -2 -1 -0 0 0 1 2 3 3 3 3 3 2 2 2 1 1 0 -0 -0 -0
-3 -4 -3 -4 -4 -3 -3 -3 -3 -3 -3 -4 -3 -3 -3 -3 -3 -2 -2 -2 -2 -1 -2 -1 -2 -2 -1 -1 0 0 1 1 1 1 1 2 0 -0 -0 -0 -0 0 -0 -1
-4 -4 -4 -4 -4 -4 -4 -4 -4 -4 -4 -4 -4 -3 -3 -3 -3 -3 -3 -3 -3 -3 -3 -2 -2 -3 -3 -3 -4 -4 -1 -0 -1 0 0 0 -0 0 -0 -1 -1 -0 -1 -1
-5 -5 -5 -5 -5 -4 -4 -4 -4 -4 -4 -4 -4 -4 -4 -4 -4 -4 -3 -4 -4 -4 -4 -3 -3 -3 -2 -4 -3 -3 -4 -4 -4 -2 -2 -2 -2 -2 -2 -2 -3 -3 -3 -3
-5 -6 -6 -5 -5 -5 -5 -5 -5 -4 -5 -5 -5 -5 -4 -5 -4 -4 -4 -4 -4 -4 -4 -3 -3 -3 -3 -3 -4 -4 -3 -4 -4 -3 -3 -3 -3 -4 -4 -4 -4 -5 -5 -6
-6 -6 -5 -5 -5 -5 -5 -5 -5 -5 -5 -6 -6 -6 -5 -4 -5 -5 -6 -5 -5 -5 -5 -5 -4 -4 -4 -4 -3 -4 -4 -4 -5 -5 -5 -5 -5 -6 -6 -7 -7 -7 -8 -8
-6 -6 -6 -6 -6 -6 -5 -5 -6 -6 -6 -6 -6 -6 -6 -6 -6 -7 -6 -6 -6 -7 -6 -6 -6 -6 -5 -5 -6 -6 -6 -6 -7 -7 -7 -8 -8 -8 -9 -9 -9 -9 -9 -10
-6 -6 -7 -7 -7 -6 -7 -7 -7 -7 -7 -7 -7 -8 -8 -8 -8 -8 -8 -8 -9 -9 -9 -8 -8 -8 -8 -8 -8 -8 -9 -9 -9 -10 -10 -10 -10 -10 -10 -10 -11 -11 -11 -11
-7 -7 -8 -8 -8 -8 -8 -8 -8 -8 -8 -8 -8 -9 -9 -10 -10 -10 -10 -11 -11 -11 -10 -10 -10 -10 -10 -11 -11 -11 -11 -11 -11 -11 -11 -11 -11 -11 -11 -11 -12 -12 -12 -13
-9 -9 -9 -9 -9 -9 -9 -9 -10 -10 -10 -10 -10 -11 -11 -12 -12 -12 -12 -13 -13 -12 -12 -12 -12 -12 -12 -12 -12 -12 -12 -12 -12 -12 -12 -12 -12 -12 -12 -13 -13 -13 -13 -13
-10 -10 -10 -11 -11 -11 -11 -11 -12 -12 -12 -12 -12 -13 -13 -13 -13 -13 -14 -13 -13 -13 -13 -13 -13 -13 -13 -13 -13 -13 -13 -13 -12 -12 -13 -13 -13 -13 -13 -14 -14 -14 -14 -15
-12 -12 -13 -13 -13 -13 -13 -13 -14 -14 -13 -14 -14 -14 -14 -14 -14 -14 -14 -14 -13 -13 -13 -13 -13 -13 -13 -13 -13 -13 -13 -14 -14 -14 -14 -14 -15 -15 -15 -15 -16 -16 -16 -16
-14 -14 -14 -14 -14 -14 -14 -14 -14 -15 -15 -15 -14 -14 -14 -14 -14 -14 -14 -14 -14 -14 -14 -14 -14 -14 -14 -14 -14 -15 -15 -15 -15 -15 -16 -16 -16 -16 -17 -17 -17 -17 -17 -18
-15 -15 -15 -15 -15 -15 -15 -15 -15 -15 -15 -15 -15 -15 -15 -15 -15 -15 -15 -15 -15 -15 -15 -15 -15 -16 -16 -16 -16 -16 -16 -16 -17 -17 -17 -17 -17 -18 -18 -18 -18 -18 -19 -19
-15 -16 -16 -16 -16 -16 -16 -16 -16 -16 -16 -16 -16 -16 -16 -16 -16 -16 -16 -16 -16 -17 -17 -17 -17 -17 -17 -17 -17 -17 -18 -18 -18 -18 -18 -18 -19 -19 -19 -19 -19 -19 -20 -20
-16 -16 -16 -16 -16 -16 -16 -17 -16 -16 -16 -16 -16 -16 -16 -17 -17 -17 -17 -17 -18 -18 -18 -18 -18 -18 -18 -18 -18 -19 -19 -19 -19 -19 -19 -20 -20 -20 -20 -20 -20 -21 -21 -21
-16 -16 -17 -17 -17 -17 -17 -17 -17 -17 -17 -17 -17 -17 -17 -18 -18 -18 -18 -18 -18 -18 -18 -19 -19 -19 -19 -19 -19 -19 -20 -20 -20 -20 -20 -21 -21 -21 -21 -21 -21 -21 -22 -22